Time,TemperatureF,DewpointF,PressureIn,WindDirection,WindDirectionDegrees,WindSpeedMPH,WindSpeedGustMPH,Humidity,HourlyPrecipIn,Conditions,Clouds,dailyrainin,SoftwareType,DateUTC
2013-01-24 00:00:00,50.7,46.8,30.34,NE,45,0.0,2.0,86,0.00,,,0.00,meteohub,2013-01-24 05:00:00,
2013-01-24 00:02:00,50.7,46.8,30.34,NE,45,1.0,1.0,86,0.00,,,0.00,meteohub,2013-01-24 05:02:00,
2013-01-24 00:03:00,50.7,46.8,30.34,NE,45,2.0,2.0,86,0.00,,,0.00,meteohub,2013-01-24 05:03:00,
2013-01-24 00:06:00,50.7,46.8,30.34,NE,45,2.0,2.0,86,0.00,,,0.00,meteohub,2013-01-24 05:06:00,
2013-01-24 00:07:00,50.7,46.8,30.34,NE,45,2.0,2.0,86,0.00,,,0.00,meteohub,2013-01-24 05:07:00,
2013-01-24 00:08:00,50.7,46.9,30.34,NE,45,1.0,2.0,87,0.00,,,0.00,meteohub,2013-01-24 05:08:00,
2013-01-24 00:12:00,50.5,46.8,30.34,NE,45,0.0,2.0,87,0.00,,,0.00,meteohub,2013-01-24 05:12:00,
2013-01-24 00:14:00,50.5,46.8,30.33,NE,45,0.0,2.0,87,0.00,,,0.00,meteohub,2013-01-24 05:14:00,
2013-01-24 00:15:00,50.5,46.6,30.34,NE,45,0.0,2.0,86,0.00,,,0.00,meteohub,2013-01-24 05:15:00,
2013-01-24 00:16:00,50.5,46.6,30.33,NE,45,0.0,2.0,86,0.00,,,0.00,meteohub,2013-01-24 05:16:00,
2013-01-24 00:17:00,50.5,46.6,30.33,NE,45,0.0,2.0,86,0.00,,,0.00,meteohub,2013-01-24 05:17:00,
2013-01-24 00:20:00,50.4,46.4,30.34,NE,45,0.0,2.0,86,0.00,,,0.00,meteohub,2013-01-24 05:20:00,
2013-01-24 00:21:00,50.4,46.4,30.34,NE,45,0.0,2.0,86,0.00,,,0.00,meteohub,2013-01-24 05:21:00,
2013-01-24 00:22:00,50.4,46.4,30.34,NE,45,0.0,2.0,86,0.00,,,0.00,meteohub,2013-01-24 05:22:00,
2013-01-24 00:26:00,50.2,46.2,30.34,NE,45,0.0,1.0,86,0.00,,,0.00,meteohub,2013-01-24 05:26:00,
2013-01-24 00:27:00,50.2,46.2,30.34,NE,45,1.0,1.0,86,0.00,,,0.00,meteohub,2013-01-24 05:27:00,
2013-01-24 00:31:00,50.0,46.2,30.33,NE,45,2.0,2.0,87,0.00,,,0.00,meteohub,2013-01-24 05:31:00,
2013-01-24 00:32:00,50.0,46.2,30.34,NE,45,2.0,2.0,87,0.00,,,0.00,meteohub,2013-01-24 05:32:00,
2013-01-24 00:33:00,50.0,46.2,30.34,NE,45,2.0,2.0,87,0.00,,,0.00,meteohub,2013-01-24 05:33:00,
2013-01-24 00:36:00,50.4,46.9,30.34,NE,45,2.0,2.0,88,0.00,,,0.00,meteohub,2013-01-24 05:36:00,
2013-01-24 00:39:00,50.4,46.9,30.34,NE,45,2.0,2.0,88,0.00,,,0.00,meteohub,2013-01-24 05:39:00,
2013-01-24 00:40:00,50.5,47.1,30.34,NE,45,1.0,2.0,88,0.00,,,0.00,meteohub,2013-01-24 05:40:00,
2013-01-24 00:41:00,50.5,47.1,30.33,NE,45,0.0,2.0,88,0.00,,,0.00,meteohub,2013-01-24 05:41:00,
2013-01-24 00:42:00,50.5,47.1,30.34,NE,45,0.0,2.0,88,0.00,,,0.00,meteohub,2013-01-24 05:42:00,
2013-01-24 00:44:00,50.5,47.1,30.33,NE,45,0.0,2.0,88,0.00,,,0.00,meteohub,2013-01-24 05:44:00,
2013-01-24 00:45:00,50.5,46.8,30.33,NE,45,0.0,2.0,87,0.00,,,0.00,meteohub,2013-01-24 05:45:00,
2013-01-24 00:47:00,50.5,46.8,30.33,NE,45,0.0,2.0,87,0.00,,,0.00,meteohub,2013-01-24 05:47:00,
2013-01-24 00:48:00,50.4,46.6,30.33,NE,45,0.0,2.0,87,0.00,,,0.00,meteohub,2013-01-24 05:48:00,
2013-01-24 00:51:00,50.4,46.6,30.33,NE,45,0.0,2.0,87,0.00,,,0.00,meteohub,2013-01-24 05:51:00,
2013-01-24 00:52:00,50.4,46.6,30.34,NE,45,0.0,2.0,87,0.00,,,0.00,meteohub,2013-01-24 05:52:00,
2013-01-24 00:54:00,50.2,46.4,30.33,NE,45,0.0,2.0,87,0.00,,,0.00,meteohub,2013-01-24 05:54:00,
2013-01-24 00:57:00,50.2,46.4,30.33,NE,45,0.0,1.0,87,0.00,,,0.00,meteohub,2013-01-24 05:57:00,
2013-01-24 00:58:00,50.2,46.4,30.33,NE,45,0.0,1.0,87,0.00,,,0.00,meteohub,2013-01-24 05:58:00,
2013-01-24 00:59:00,50.0,46.0,30.33,NE,45,0.0,1.0,86,0.00,,,0.00,meteohub,2013-01-24 05:59:00,
2013-01-24 01:00:00,50.0,46.0,30.33,NE,45,0.0,1.0,86,0.00,,,0.00,meteohub,2013-01-24 06:00:00,
2013-01-24 01:02:00,50.0,46.0,30.32,NE,45,0.0,0.0,86,0.00,,,0.00,meteohub,2013-01-24 06:02:00,
2013-01-24 01:04:00,49.8,46.0,30.32,NE,45,0.0,0.0,87,0.00,,,0.00,meteohub,2013-01-24 06:04:00,
2013-01-24 01:05:00,49.8,46.0,30.32,NE,45,0.0,0.0,87,0.00,,,0.00,meteohub,2013-01-24 06:05:00,
2013-01-24 01:06:00,49.8,46.0,30.32,NE,45,0.0,0.0,87,0.00,,,0.00,meteohub,2013-01-24 06:06:00,
2013-01-24 01:08:00,49.8,46.0,30.32,NE,45,0.0,0.0,87,0.00,,,0.00,meteohub,2013-01-24 06:08:00,
2013-01-24 01:11:00,49.6,46.2,30.32,NE,45,0.0,0.0,88,0.00,,,0.00,meteohub,2013-01-24 06:11:00,
2013-01-24 01:13:00,49.6,46.2,30.32,NE,45,0.0,0.0,88,0.00,,,0.00,meteohub,2013-01-24 06:13:00,
2013-01-24 01:15:00,49.6,46.2,30.32,NE,45,0.0,0.0,88,0.00,,,0.00,meteohub,2013-01-24 06:15:00,
2013-01-24 01:16:00,49.5,46.0,30.32,NE,45,0.0,0.0,88,0.00,,,0.00,meteohub,2013-01-24 06:16:00,
2013-01-24 01:18:00,49.5,46.0,30.32,NE,45,0.0,0.0,88,0.00,,,0.00,meteohub,2013-01-24 06:18:00,
2013-01-24 01:19:00,49.5,46.0,30.32,NE,45,0.0,0.0,88,0.00,,,0.00,meteohub,2013-01-24 06:19:00,
2013-01-24 01:21:00,49.5,46.0,30.32,NE,45,0.0,0.0,88,0.00,,,0.00,meteohub,2013-01-24 06:21:00,
2013-01-24 01:22:00,49.5,46.0,30.32,NE,45,0.0,0.0,88,0.00,,,0.00,meteohub,2013-01-24 06:22:00,
2013-01-24 01:25:00,49.5,46.0,30.32,East,90,0.0,0.0,88,0.00,,,0.00,meteohub,2013-01-24 06:25:00,
2013-01-24 01:26:00,49.3,46.2,30.32,East,90,0.0,0.0,89,0.00,,,0.00,meteohub,2013-01-24 06:26:00,
2013-01-24 01:28:00,49.3,46.2,30.32,East,90,0.0,0.0,89,0.00,,,0.00,meteohub,2013-01-24 06:28:00,
2013-01-24 01:32:00,49.3,46.2,30.32,East,90,0.0,0.0,89,0.00,,,0.00,meteohub,2013-01-24 06:32:00,
2013-01-24 01:33:00,49.1,46.0,30.32,East,90,0.0,0.0,89,0.00,,,0.00,meteohub,2013-01-24 06:33:00,
2013-01-24 01:36:00,48.9,45.9,30.32,East,90,0.0,0.0,89,0.00,,,0.00,meteohub,2013-01-24 06:36:00,
2013-01-24 01:37:00,48.9,45.9,30.32,East,90,0.0,0.0,89,0.00,,,0.00,meteohub,2013-01-24 06:37:00,
2013-01-24 01:38:00,48.9,45.9,30.32,East,90,0.0,0.0,89,0.00,,,0.00,meteohub,2013-01-24 06:38:00,
2013-01-24 01:41:00,48.9,46.0,30.32,East,90,0.0,0.0,90,0.00,,,0.00,meteohub,2013-01-24 06:41:00,
2013-01-24 01:42:00,48.9,46.0,30.32,East,90,0.0,0.0,90,0.00,,,0.00,meteohub,2013-01-24 06:42:00,
2013-01-24 01:43:00,48.7,45.9,30.32,East,90,0.0,0.0,90,0.00,,,0.00,meteohub,2013-01-24 06:43:00,
2013-01-24 01:46:00,48.7,45.9,30.32,East,90,0.0,0.0,90,0.00,,,0.00,meteohub,2013-01-24 06:46:00,
2013-01-24 01:48:00,48.7,45.9,30.31,East,90,0.0,0.0,90,0.00,,,0.00,meteohub,2013-01-24 06:48:00,
2013-01-24 01:50:00,48.7,45.9,30.32,East,90,0.0,0.0,90,0.00,,,0.00,meteohub,2013-01-24 06:50:00,
2013-01-24 01:52:00,48.7,45.9,30.31,East,90,0.0,0.0,90,0.00,,,0.00,meteohub,2013-01-24 06:52:00,
2013-01-24 01:54:00,48.7,46.2,30.30,East,90,0.0,0.0,91,0.00,,,0.00,meteohub,2013-01-24 06:54:00,
2013-01-24 01:55:00,48.7,46.2,30.30,East,90,0.0,0.0,91,0.00,,,0.00,meteohub,2013-01-24 06:55:00,
2013-01-24 01:57:00,48.6,46.0,30.31,East,90,0.0,0.0,91,0.00,,,0.00,meteohub,2013-01-24 06:57:00,
2013-01-24 01:58:00,48.6,46.0,30.31,East,90,0.0,0.0,91,0.00,,,0.00,meteohub,2013-01-24 06:58:00,
2013-01-24 02:00:00,48.6,46.0,30.31,East,90,0.0,0.0,91,0.00,,,0.00,meteohub,2013-01-24 07:00:00,
2013-01-24 02:01:00,48.6,46.0,30.31,East,90,0.0,0.0,91,0.00,,,0.00,meteohub,2013-01-24 07:01:00,
2013-01-24 02:02:00,48.6,46.0,30.31,East,90,0.0,0.0,91,0.00,,,0.00,meteohub,2013-01-24 07:02:00,
2013-01-24 02:04:00,48.6,46.0,30.31,East,90,0.0,0.0,91,0.00,,,0.00,meteohub,2013-01-24 07:04:00,
2013-01-24 02:05:00,48.4,45.9,30.31,East,90,0.0,0.0,91,0.00,,,0.00,meteohub,2013-01-24 07:05:00,
2013-01-24 02:10:00,48.6,46.0,30.31,East,90,0.0,0.0,91,0.00,,,0.00,meteohub,2013-01-24 07:10:00,
2013-01-24 02:11:00,48.6,46.0,30.31,East,90,0.0,0.0,91,0.00,,,0.00,meteohub,2013-01-24 07:11:00,
2013-01-24 02:16:00,48.6,46.4,30.31,East,90,0.0,0.0,92,0.00,,,0.00,meteohub,2013-01-24 07:16:00,
2013-01-24 02:17:00,48.6,46.4,30.31,East,90,0.0,0.0,92,0.00,,,0.00,meteohub,2013-01-24 07:17:00,
2013-01-24 02:18:00,48.6,46.4,30.30,East,90,0.0,0.0,92,0.00,,,0.00,meteohub,2013-01-24 07:18:00,
2013-01-24 02:21:00,48.4,46.2,30.31,East,90,0.0,0.0,92,0.00,,,0.00,meteohub,2013-01-24 07:21:00,
2013-01-24 02:22:00,48.4,46.2,30.31,East,90,0.0,0.0,92,0.00,,,0.00,meteohub,2013-01-24 07:22:00,
2013-01-24 02:24:00,48.4,46.2,30.31,East,90,0.0,0.0,92,0.00,,,0.00,meteohub,2013-01-24 07:24:00,
2013-01-24 02:27:00,48.2,46.2,30.30,East,90,0.0,0.0,93,0.00,,,0.00,meteohub,2013-01-24 07:27:00,
2013-01-24 02:29:00,48.2,46.2,30.30,East,90,0.0,0.0,93,0.00,,,0.00,meteohub,2013-01-24 07:29:00,
2013-01-24 02:31:00,48.2,46.2,30.31,East,90,0.0,0.0,93,0.00,,,0.00,meteohub,2013-01-24 07:31:00,
2013-01-24 02:34:00,48.2,46.2,30.30,East,90,0.0,0.0,93,0.00,,,0.00,meteohub,2013-01-24 07:34:00,
2013-01-24 02:35:00,48.2,46.2,30.30,East,90,0.0,0.0,93,0.00,,,0.00,meteohub,2013-01-24 07:35:00,
2013-01-24 02:37:00,48.2,46.2,30.30,East,90,0.0,0.0,93,0.00,,,0.00,meteohub,2013-01-24 07:37:00,
2013-01-24 02:41:00,48.2,46.2,30.30,East,90,0.0,0.0,93,0.00,,,0.00,meteohub,2013-01-24 07:41:00,
2013-01-24 02:44:00,48.0,46.4,30.30,East,90,0.0,0.0,94,0.00,,,0.00,meteohub,2013-01-24 07:44:00,
2013-01-24 02:46:00,48.0,46.4,30.30,East,90,0.0,0.0,94,0.00,,,0.00,meteohub,2013-01-24 07:46:00,
2013-01-24 02:47:00,48.0,46.4,30.30,East,90,0.0,0.0,94,0.00,,,0.00,meteohub,2013-01-24 07:47:00,
2013-01-24 02:49:00,48.0,46.4,30.30,East,90,0.0,0.0,94,0.00,,,0.00,meteohub,2013-01-24 07:49:00,
2013-01-24 02:50:00,48.0,46.4,30.30,East,90,0.0,0.0,94,0.00,,,0.00,meteohub,2013-01-24 07:50:00,
2013-01-24 02:52:00,48.0,46.4,30.30,East,90,0.0,0.0,94,0.00,,,0.00,meteohub,2013-01-24 07:52:00,
2013-01-24 02:54:00,47.8,46.2,30.30,East,90,0.0,0.0,94,0.00,,,0.00,meteohub,2013-01-24 07:54:00,
2013-01-24 02:56:00,47.8,46.2,30.30,East,90,0.0,0.0,94,0.00,,,0.00,meteohub,2013-01-24 07:56:00,
2013-01-24 02:58:00,47.8,46.2,30.29,East,90,0.0,0.0,94,0.00,,,0.00,meteohub,2013-01-24 07:58:00,
2013-01-24 03:00:00,47.8,46.2,30.30,East,90,0.0,0.0,94,0.00,,,0.00,meteohub,2013-01-24 08:00:00,
2013-01-24 03:02:00,47.8,46.2,30.30,East,90,0.0,0.0,94,0.00,,,0.00,meteohub,2013-01-24 08:02:00,
2013-01-24 03:03:00,47.8,46.2,30.30,East,90,0.0,0.0,94,0.00,,,0.00,meteohub,2013-01-24 08:03:00,
2013-01-24 03:06:00,47.8,46.2,30.30,East,90,0.0,0.0,94,0.00,,,0.00,meteohub,2013-01-24 08:06:00,
2013-01-24 03:07:00,47.8,46.2,30.30,East,90,0.0,0.0,94,0.00,,,0.00,meteohub,2013-01-24 08:07:00,
2013-01-24 03:09:00,47.8,46.2,30.30,East,90,0.0,0.0,94,0.00,,,0.00,meteohub,2013-01-24 08:09:00,
2013-01-24 03:10:00,47.8,46.2,30.29,East,90,0.0,0.0,94,0.00,,,0.00,meteohub,2013-01-24 08:10:00,
2013-01-24 03:11:00,47.8,46.2,30.29,East,90,0.0,0.0,94,0.00,,,0.00,meteohub,2013-01-24 08:11:00,
2013-01-24 03:12:00,47.7,46.0,30.29,East,90,0.0,0.0,94,0.00,,,0.00,meteohub,2013-01-24 08:12:00,
2013-01-24 03:16:00,47.8,46.2,30.29,South,180,1.0,2.0,94,0.00,,,0.00,meteohub,2013-01-24 08:16:00,
2013-01-24 03:17:00,47.8,46.4,30.29,South,180,0.0,2.0,95,0.00,,,0.00,meteohub,2013-01-24 08:17:00,
2013-01-24 03:22:00,47.8,46.4,30.29,South,180,1.0,2.0,95,0.00,,,0.00,meteohub,2013-01-24 08:22:00,
2013-01-24 03:23:00,47.8,46.4,30.29,South,180,0.0,2.0,95,0.00,,,0.00,meteohub,2013-01-24 08:23:00,
2013-01-24 03:24:00,47.8,46.4,30.29,North,0,0.0,2.0,95,0.00,,,0.00,meteohub,2013-01-24 08:24:00,
2013-01-24 03:28:00,47.8,46.2,30.29,North,0,2.0,2.0,94,0.00,,,0.00,meteohub,2013-01-24 08:28:00,
2013-01-24 03:29:00,47.8,46.2,30.29,North,0,2.0,2.0,94,0.00,,,0.00,meteohub,2013-01-24 08:29:00,
2013-01-24 03:30:00,47.8,46.2,30.29,North,0,2.0,2.0,94,0.00,,,0.00,meteohub,2013-01-24 08:30:00,
2013-01-24 03:35:00,47.7,46.0,30.29,North,0,1.0,2.0,94,0.00,,,0.00,meteohub,2013-01-24 08:35:00,
2013-01-24 03:36:00,47.7,46.0,30.29,North,0,1.0,2.0,94,0.00,,,0.00,meteohub,2013-01-24 08:36:00,
2013-01-24 03:37:00,47.7,46.0,30.29,North,0,1.0,2.0,94,0.00,,,0.00,meteohub,2013-01-24 08:37:00,
2013-01-24 03:38:00,47.7,46.0,30.29,North,0,0.0,2.0,94,0.00,,,0.00,meteohub,2013-01-24 08:38:00,
2013-01-24 03:42:00,47.7,46.0,30.29,North,0,0.0,2.0,94,0.00,,,0.00,meteohub,2013-01-24 08:42:00,
2013-01-24 03:43:00,47.7,46.0,30.29,North,0,2.0,2.0,94,0.00,,,0.00,meteohub,2013-01-24 08:43:00,
2013-01-24 03:44:00,47.7,46.0,30.29,North,0,2.0,2.0,94,0.00,,,0.00,meteohub,2013-01-24 08:44:00,
2013-01-24 03:48:00,47.8,46.4,30.29,North,0,2.0,2.0,95,0.00,,,0.00,meteohub,2013-01-24 08:48:00,
2013-01-24 03:49:00,47.8,46.4,30.29,North,0,2.0,2.0,95,0.00,,,0.00,meteohub,2013-01-24 08:49:00,
2013-01-24 03:50:00,48.0,46.6,30.30,NE,45,1.0,2.0,95,0.00,,,0.00,meteohub,2013-01-24 08:50:00,
2013-01-24 03:51:00,48.0,46.6,30.30,NE,45,1.0,2.0,95,0.00,,,0.00,meteohub,2013-01-24 08:51:00,
2013-01-24 03:54:00,48.0,46.6,30.30,NE,45,2.0,2.0,95,0.00,,,0.00,meteohub,2013-01-24 08:54:00,
2013-01-24 03:56:00,48.2,46.6,30.30,North,0,2.0,2.0,94,0.00,,,0.00,meteohub,2013-01-24 08:56:00,
2013-01-24 03:57:00,48.2,46.6,30.30,North,0,2.0,2.0,94,0.00,,,0.00,meteohub,2013-01-24 08:57:00,
2013-01-24 04:00:00,48.6,47.1,30.30,North,0,0.0,2.0,95,0.00,,,0.00,meteohub,2013-01-24 09:00:00,
2013-01-24 04:02:00,48.6,47.1,30.30,North,0,2.0,2.0,95,0.00,,,0.00,meteohub,2013-01-24 09:02:00,
2013-01-24 04:05:00,48.7,47.3,30.30,North,0,0.0,2.0,95,0.00,,,0.00,meteohub,2013-01-24 09:05:00,
2013-01-24 04:06:00,48.7,47.3,30.30,North,0,1.0,2.0,95,0.00,,,0.00,meteohub,2013-01-24 09:06:00,
2013-01-24 04:07:00,48.7,47.3,30.30,North,0,1.0,2.0,95,0.00,,,0.00,meteohub,2013-01-24 09:07:00,
2013-01-24 04:11:00,48.9,47.5,30.30,North,0,2.0,2.0,95,0.00,,,0.00,meteohub,2013-01-24 09:11:00,
2013-01-24 04:12:00,48.9,47.5,30.30,North,0,2.0,2.0,95,0.00,,,0.00,meteohub,2013-01-24 09:12:00,
2013-01-24 04:16:00,48.9,47.5,30.30,North,0,0.0,2.0,95,0.00,,,0.00,meteohub,2013-01-24 09:16:00,
2013-01-24 04:17:00,48.9,47.8,30.30,North,0,0.0,2.0,96,0.00,,,0.00,meteohub,2013-01-24 09:17:00,
2013-01-24 04:19:00,48.7,47.7,30.30,North,0,1.0,2.0,96,0.00,,,0.00,meteohub,2013-01-24 09:19:00,
2013-01-24 04:22:00,48.9,47.8,30.30,North,0,2.0,2.0,96,0.00,,,0.00,meteohub,2013-01-24 09:22:00,
2013-01-24 04:23:00,48.9,47.8,30.30,North,0,2.0,2.0,96,0.00,,,0.00,meteohub,2013-01-24 09:23:00,
2013-01-24 04:24:00,48.9,47.8,30.30,North,0,2.0,2.0,96,0.00,,,0.00,meteohub,2013-01-24 09:24:00,
2013-01-24 04:25:00,48.9,47.8,30.30,North,0,2.0,2.0,96,0.00,,,0.00,meteohub,2013-01-24 09:25:00,
2013-01-24 04:27:00,48.9,47.8,30.30,North,0,2.0,2.0,96,0.00,,,0.00,meteohub,2013-01-24 09:27:00,
2013-01-24 04:28:00,48.9,47.8,30.30,North,0,2.0,2.0,96,0.00,,,0.00,meteohub,2013-01-24 09:28:00,
2013-01-24 04:30:00,48.9,47.8,30.30,North,0,2.0,2.0,96,0.00,,,0.00,meteohub,2013-01-24 09:30:00,
2013-01-24 04:34:00,48.9,47.8,30.30,North,0,1.0,2.0,96,0.00,,,0.00,meteohub,2013-01-24 09:34:00,
2013-01-24 04:36:00,49.1,48.0,30.30,North,0,2.0,2.0,96,0.00,,,0.00,meteohub,2013-01-24 09:36:00,
2013-01-24 04:37:00,49.1,48.0,30.30,NE,45,1.0,2.0,96,0.00,,,0.00,meteohub,2013-01-24 09:37:00,
2013-01-24 04:39:00,49.1,48.0,30.31,NE,45,2.0,2.0,96,0.00,,,0.00,meteohub,2013-01-24 09:39:00,
2013-01-24 04:40:00,49.1,48.0,30.30,NE,45,2.0,2.0,96,0.00,,,0.00,meteohub,2013-01-24 09:40:00,
2013-01-24 04:42:00,49.1,48.0,30.30,NE,45,1.0,2.0,96,0.00,,,0.00,meteohub,2013-01-24 09:42:00,
2013-01-24 04:44:00,49.3,48.2,30.31,NE,45,2.0,2.0,96,0.00,,,0.00,meteohub,2013-01-24 09:44:00,
2013-01-24 04:45:00,49.3,48.2,30.30,North,0,2.0,2.0,96,0.00,,,0.00,meteohub,2013-01-24 09:45:00,
2013-01-24 04:49:00,49.6,48.6,30.31,North,0,2.0,2.0,96,0.00,,,0.00,meteohub,2013-01-24 09:49:00,
2013-01-24 04:50:00,49.6,48.6,30.31,North,0,2.0,2.0,96,0.00,,,0.00,meteohub,2013-01-24 09:50:00,
2013-01-24 04:51:00,49.8,48.7,30.31,North,0,2.0,2.0,96,0.00,,,0.00,meteohub,2013-01-24 09:51:00,
2013-01-24 04:52:00,49.8,48.7,30.31,North,0,2.0,2.0,96,0.00,,,0.00,meteohub,2013-01-24 09:52:00,
2013-01-24 04:55:00,50.0,48.6,30.30,North,0,2.0,2.0,95,0.00,,,0.00,meteohub,2013-01-24 09:55:00,
2013-01-24 04:56:00,50.0,48.6,30.30,NE,45,2.0,2.0,95,0.00,,,0.00,meteohub,2013-01-24 09:56:00,
2013-01-24 04:57:00,50.0,48.6,30.30,North,0,2.0,2.0,95,0.00,,,0.00,meteohub,2013-01-24 09:57:00,
2013-01-24 05:01:00,50.0,48.6,30.30,North,0,2.0,2.0,95,0.00,,,0.00,meteohub,2013-01-24 10:01:00,
2013-01-24 05:02:00,50.0,48.6,30.30,North,0,1.0,2.0,95,0.00,,,0.00,meteohub,2013-01-24 10:02:00,
2013-01-24 05:03:00,50.0,48.6,30.30,North,0,1.0,2.0,95,0.00,,,0.00,meteohub,2013-01-24 10:03:00,
2013-01-24 05:04:00,49.8,48.7,30.30,North,0,1.0,2.0,96,0.00,,,0.00,meteohub,2013-01-24 10:04:00,
2013-01-24 05:06:00,49.8,48.7,30.30,North,0,1.0,2.0,96,0.00,,,0.00,meteohub,2013-01-24 10:06:00,
2013-01-24 05:07:00,49.8,48.7,30.30,North,0,1.0,2.0,96,0.00,,,0.00,meteohub,2013-01-24 10:07:00,
2013-01-24 05:08:00,49.6,48.6,30.30,North,0,1.0,2.0,96,0.00,,,0.00,meteohub,2013-01-24 10:08:00,
2013-01-24 05:09:00,49.6,48.6,30.30,North,0,1.0,2.0,96,0.00,,,0.00,meteohub,2013-01-24 10:09:00,
2013-01-24 05:13:00,49.5,48.4,30.30,North,0,2.0,2.0,96,0.00,,,0.00,meteohub,2013-01-24 10:13:00,
2013-01-24 05:14:00,49.5,48.4,30.31,North,0,2.0,2.0,96,0.00,,,0.00,meteohub,2013-01-24 10:14:00,
2013-01-24 05:15:00,49.5,48.4,30.31,North,0,2.0,2.0,96,0.00,,,0.00,meteohub,2013-01-24 10:15:00,
2013-01-24 05:17:00,49.5,48.4,30.31,North,0,2.0,2.0,96,0.00,,,0.00,meteohub,2013-01-24 10:17:00,
2013-01-24 05:18:00,49.5,48.4,30.31,North,0,2.0,2.0,96,0.00,,,0.00,meteohub,2013-01-24 10:18:00,
2013-01-24 05:19:00,49.5,48.4,30.31,North,0,2.0,2.0,96,0.00,,,0.00,meteohub,2013-01-24 10:19:00,
2013-01-24 05:20:00,49.5,48.4,30.32,North,0,2.0,2.0,96,0.00,,,0.00,meteohub,2013-01-24 10:20:00,
2013-01-24 05:22:00,49.5,48.4,30.32,North,0,2.0,2.0,96,0.00,,,0.00,meteohub,2013-01-24 10:22:00,
2013-01-24 05:23:00,49.5,48.4,30.32,North,0,2.0,2.0,96,0.00,,,0.00,meteohub,2013-01-24 10:23:00,
2013-01-24 05:24:00,49.5,48.4,30.32,North,0,2.0,2.0,96,0.00,,,0.00,meteohub,2013-01-24 10:24:00,
2013-01-24 05:25:00,49.5,48.4,30.32,NE,45,2.0,2.0,96,0.00,,,0.00,meteohub,2013-01-24 10:25:00,
2013-01-24 05:27:00,49.5,48.4,30.32,North,0,2.0,2.0,96,0.00,,,0.00,meteohub,2013-01-24 10:27:00,
2013-01-24 05:30:00,49.5,48.4,30.32,North,0,2.0,2.0,96,0.00,,,0.00,meteohub,2013-01-24 10:30:00,
2013-01-24 05:31:00,49.5,48.4,30.32,NE,45,2.0,2.0,96,0.00,,,0.00,meteohub,2013-01-24 10:31:00,
2013-01-24 05:32:00,49.5,48.4,30.32,NE,45,2.0,2.0,96,0.00,,,0.00,meteohub,2013-01-24 10:32:00,
2013-01-24 05:33:00,49.6,48.6,30.32,NE,45,1.0,2.0,96,0.00,,,0.00,meteohub,2013-01-24 10:33:00,
2013-01-24 05:36:00,49.5,48.4,30.32,NE,45,2.0,2.0,96,0.00,,,0.00,meteohub,2013-01-24 10:36:00,
2013-01-24 05:37:00,49.5,48.0,30.32,North,0,2.0,2.0,95,0.00,,,0.00,meteohub,2013-01-24 10:37:00,
2013-01-24 05:38:00,49.5,48.0,30.32,North,0,2.0,2.0,95,0.00,,,0.00,meteohub,2013-01-24 10:38:00,
2013-01-24 05:41:00,49.5,48.0,30.32,North,0,1.0,2.0,95,0.00,,,0.00,meteohub,2013-01-24 10:41:00,
2013-01-24 05:43:00,49.5,48.0,30.32,North,0,2.0,2.0,95,0.00,,,0.00,meteohub,2013-01-24 10:43:00,
2013-01-24 05:44:00,49.5,48.0,30.32,North,0,2.0,2.0,95,0.00,,,0.00,meteohub,2013-01-24 10:44:00,
2013-01-24 05:47:00,49.5,47.8,30.32,North,0,2.0,2.0,94,0.00,,,0.00,meteohub,2013-01-24 10:47:00,
2013-01-24 05:48:00,49.5,47.8,30.32,North,0,2.0,2.0,94,0.00,,,0.00,meteohub,2013-01-24 10:48:00,
2013-01-24 05:49:00,49.5,47.8,30.32,North,0,2.0,2.0,94,0.00,,,0.00,meteohub,2013-01-24 10:49:00,
2013-01-24 05:50:00,49.5,47.5,30.32,NE,45,2.0,2.0,93,0.00,,,0.00,meteohub,2013-01-24 10:50:00,
2013-01-24 05:52:00,49.5,47.5,30.32,North,0,2.0,2.0,93,0.00,,,0.00,meteohub,2013-01-24 10:52:00,
2013-01-24 05:53:00,49.3,47.1,30.32,NE,45,2.0,2.0,92,0.00,,,0.00,meteohub,2013-01-24 10:53:00,
2013-01-24 05:54:00,49.3,47.1,30.32,NE,45,2.0,2.0,92,0.00,,,0.00,meteohub,2013-01-24 10:54:00,
2013-01-24 05:55:00,49.3,47.1,30.32,NE,45,1.0,2.0,92,0.00,,,0.00,meteohub,2013-01-24 10:55:00,
2013-01-24 05:59:00,49.3,46.8,30.32,North,0,2.0,2.0,91,0.00,,,0.00,meteohub,2013-01-24 10:59:00,
2013-01-24 06:01:00,49.3,46.8,30.32,North,0,2.0,2.0,91,0.00,,,0.00,meteohub,2013-01-24 11:01:00,
2013-01-24 06:03:00,49.1,46.2,30.32,North,0,2.0,2.0,90,0.00,,,0.00,meteohub,2013-01-24 11:03:00,
2013-01-24 06:04:00,49.1,46.2,30.32,North,0,2.0,2.0,90,0.00,,,0.00,meteohub,2013-01-24 11:04:00,
2013-01-24 06:06:00,49.1,46.0,30.32,North,0,2.0,2.0,89,0.00,,,0.00,meteohub,2013-01-24 11:06:00,
2013-01-24 06:09:00,49.3,46.2,30.32,North,0,2.0,2.0,89,0.00,,,0.00,meteohub,2013-01-24 11:09:00,
2013-01-24 06:11:00,49.3,45.9,30.32,North,0,1.0,2.0,88,0.00,,,0.00,meteohub,2013-01-24 11:11:00,
2013-01-24 06:13:00,49.3,45.9,30.32,NE,45,1.0,2.0,88,0.00,,,0.00,meteohub,2013-01-24 11:13:00,
2013-01-24 06:15:00,49.3,45.9,30.32,NE,45,2.0,2.0,88,0.00,,,0.00,meteohub,2013-01-24 11:15:00,
2013-01-24 06:18:00,49.3,45.9,30.33,NE,45,1.0,2.0,88,0.00,,,0.00,meteohub,2013-01-24 11:18:00,
2013-01-24 06:20:00,49.3,45.5,30.33,North,0,2.0,2.0,87,0.00,,,0.00,meteohub,2013-01-24 11:20:00,
2013-01-24 06:21:00,49.3,45.5,30.32,North,0,1.0,2.0,87,0.00,,,0.00,meteohub,2013-01-24 11:21:00,
2013-01-24 06:23:00,49.3,45.5,30.33,NE,45,1.0,2.0,87,0.00,,,0.00,meteohub,2013-01-24 11:23:00,
2013-01-24 06:25:00,49.5,45.7,30.32,NE,45,1.0,2.0,87,0.00,,,0.00,meteohub,2013-01-24 11:25:00,
2013-01-24 06:26:00,49.5,45.7,30.32,NE,45,1.0,2.0,87,0.00,,,0.00,meteohub,2013-01-24 11:26:00,
2013-01-24 06:27:00,49.5,45.7,30.32,NE,45,1.0,2.0,87,0.00,,,0.00,meteohub,2013-01-24 11:27:00,
2013-01-24 06:28:00,49.5,45.5,30.33,NE,45,2.0,2.0,86,0.00,,,0.00,meteohub,2013-01-24 11:28:00,
2013-01-24 06:30:00,49.5,45.5,30.33,NE,45,2.0,2.0,86,0.00,,,0.00,meteohub,2013-01-24 11:30:00,
2013-01-24 06:33:00,49.6,45.3,30.33,North,0,1.0,2.0,85,0.00,,,0.00,meteohub,2013-01-24 11:33:00,
2013-01-24 06:34:00,49.6,45.3,30.33,North,0,1.0,2.0,85,0.00,,,0.00,meteohub,2013-01-24 11:34:00,
2013-01-24 06:37:00,49.8,45.1,30.33,North,0,2.0,2.0,84,0.00,,,0.00,meteohub,2013-01-24 11:37:00,
2013-01-24 06:38:00,50.0,45.0,30.33,NE,45,2.0,2.0,83,0.00,,,0.00,meteohub,2013-01-24 11:38:00,
2013-01-24 06:39:00,50.0,45.0,30.33,NE,45,2.0,2.0,83,0.00,,,0.00,meteohub,2013-01-24 11:39:00,
2013-01-24 06:43:00,50.0,44.8,30.33,North,0,2.0,2.0,82,0.00,,,0.00,meteohub,2013-01-24 11:43:00,
2013-01-24 06:44:00,50.2,44.6,30.33,North,0,2.0,2.0,81,0.00,,,0.00,meteohub,2013-01-24 11:44:00,
2013-01-24 06:45:00,50.2,44.6,30.33,North,0,2.0,2.0,81,0.00,,,0.00,meteohub,2013-01-24 11:45:00,
2013-01-24 06:48:00,50.2,44.6,30.33,North,0,2.0,2.0,81,0.00,,,0.00,meteohub,2013-01-24 11:48:00,
2013-01-24 06:49:00,50.2,44.6,30.34,North,0,2.0,2.0,81,0.00,,,0.00,meteohub,2013-01-24 11:49:00,
2013-01-24 06:50:00,50.2,44.2,30.33,North,0,2.0,2.0,80,0.00,,,0.00,meteohub,2013-01-24 11:50:00,
2013-01-24 06:52:00,50.2,44.2,30.33,North,0,2.0,2.0,80,0.00,,,0.00,meteohub,2013-01-24 11:52:00,
2013-01-24 06:53:00,50.2,44.6,30.34,North,0,1.0,2.0,81,0.00,,,0.00,meteohub,2013-01-24 11:53:00,
2013-01-24 06:55:00,50.2,44.6,30.34,NE,45,1.0,2.0,81,0.00,,,0.00,meteohub,2013-01-24 11:55:00,
2013-01-24 06:58:00,50.2,44.6,30.34,NE,45,2.0,2.0,81,0.00,,,0.00,meteohub,2013-01-24 11:58:00,
2013-01-24 06:59:00,50.2,44.6,30.33,North,0,2.0,2.0,81,0.00,,,0.00,meteohub,2013-01-24 11:59:00,
2013-01-24 07:00:00,50.2,44.6,30.33,North,0,2.0,2.0,81,0.00,,,0.00,meteohub,2013-01-24 12:00:00,
2013-01-24 07:01:00,50.2,45.0,30.34,North,0,2.0,2.0,82,0.00,,,0.00,meteohub,2013-01-24 12:01:00,
2013-01-24 07:03:00,50.2,45.0,30.34,North,0,2.0,2.0,82,0.00,,,0.00,meteohub,2013-01-24 12:03:00,
2013-01-24 07:05:00,50.2,45.1,30.34,North,0,2.0,2.0,83,0.00,,,0.00,meteohub,2013-01-24 12:05:00,
2013-01-24 07:06:00,50.2,45.1,30.34,North,0,2.0,2.0,83,0.00,,,0.00,meteohub,2013-01-24 12:06:00,
2013-01-24 07:08:00,50.2,45.1,30.34,North,0,2.0,2.0,83,0.00,,,0.00,meteohub,2013-01-24 12:08:00,
2013-01-24 07:09:00,50.2,45.1,30.34,NE,45,1.0,2.0,83,0.00,,,0.00,meteohub,2013-01-24 12:09:00,
2013-01-24 07:10:00,50.2,45.1,30.34,NE,45,1.0,2.0,83,0.00,,,0.00,meteohub,2013-01-24 12:10:00,
2013-01-24 07:13:00,50.2,45.5,30.34,NE,45,1.0,2.0,84,0.00,,,0.00,meteohub,2013-01-24 12:13:00,
2013-01-24 07:14:00,50.2,45.5,30.34,NE,45,1.0,2.0,84,0.00,,,0.00,meteohub,2013-01-24 12:14:00,
2013-01-24 07:16:00,50.2,45.5,30.34,North,0,2.0,2.0,84,0.00,,,0.00,meteohub,2013-01-24 12:16:00,
2013-01-24 07:19:00,50.2,45.5,30.34,North,0,2.0,2.0,84,0.00,,,0.00,meteohub,2013-01-24 12:19:00,
2013-01-24 07:20:00,50.2,45.9,30.33,North,0,1.0,2.0,85,0.00,,,0.00,meteohub,2013-01-24 12:20:00,
2013-01-24 07:22:00,50.2,45.9,30.33,North,0,1.0,2.0,85,0.00,,,0.00,meteohub,2013-01-24 12:22:00,
2013-01-24 07:23:00,50.2,45.9,30.34,North,0,1.0,2.0,85,0.00,,,0.00,meteohub,2013-01-24 12:23:00,
2013-01-24 07:25:00,50.2,45.9,30.34,North,0,1.0,2.0,85,0.00,,,0.00,meteohub,2013-01-24 12:25:00,
2013-01-24 07:29:00,50.2,45.9,30.34,North,0,2.0,2.0,85,0.00,,,0.00,meteohub,2013-01-24 12:29:00,
2013-01-24 07:30:00,50.2,46.2,30.34,North,0,2.0,2.0,86,0.00,,,0.00,meteohub,2013-01-24 12:30:00,
2013-01-24 07:31:00,50.4,46.4,30.34,North,0,2.0,2.0,86,0.00,,,0.00,meteohub,2013-01-24 12:31:00,
2013-01-24 07:32:00,50.4,46.4,30.34,North,0,2.0,2.0,86,0.00,,,0.00,meteohub,2013-01-24 12:32:00,
2013-01-24 07:36:00,50.4,46.4,30.34,North,0,2.0,2.0,86,0.00,,,0.00,meteohub,2013-01-24 12:36:00,
2013-01-24 07:37:00,50.4,46.6,30.34,North,0,2.0,2.0,87,0.00,,,0.00,meteohub,2013-01-24 12:37:00,
2013-01-24 07:41:00,50.4,46.6,30.34,North,0,2.0,2.0,87,0.00,,,0.00,meteohub,2013-01-24 12:41:00,
2013-01-24 07:42:00,50.5,46.8,30.34,North,0,2.0,2.0,87,0.00,,,0.00,meteohub,2013-01-24 12:42:00,
2013-01-24 07:46:00,50.5,46.8,30.34,NE,45,1.0,2.0,87,0.00,,,0.00,meteohub,2013-01-24 12:46:00,
2013-01-24 07:47:00,50.5,46.8,30.34,NE,45,1.0,2.0,87,0.00,,,0.00,meteohub,2013-01-24 12:47:00,
2013-01-24 07:48:00,50.5,47.1,30.35,NE,45,1.0,2.0,88,0.00,,,0.00,meteohub,2013-01-24 12:48:00,
2013-01-24 07:49:00,50.5,47.1,30.34,NE,45,1.0,2.0,88,0.00,,,0.00,meteohub,2013-01-24 12:49:00,
2013-01-24 07:53:00,50.7,47.3,30.34,NE,45,1.0,2.0,88,0.00,,,0.00,meteohub,2013-01-24 12:53:00,
2013-01-24 07:54:00,50.7,47.3,30.34,NE,45,1.0,2.0,88,0.00,,,0.00,meteohub,2013-01-24 12:54:00,
2013-01-24 07:55:00,50.7,47.3,30.35,North,0,1.0,2.0,88,0.00,,,0.00,meteohub,2013-01-24 12:55:00,
2013-01-24 07:58:00,50.9,47.8,30.35,North,0,2.0,2.0,89,0.00,,,0.00,meteohub,2013-01-24 12:58:00,
2013-01-24 07:59:00,50.9,47.8,30.35,North,0,2.0,2.0,89,0.00,,,0.00,meteohub,2013-01-24 12:59:00,
2013-01-24 08:01:00,50.9,47.8,30.35,North,0,2.0,2.0,89,0.00,,,0.00,meteohub,2013-01-24 13:01:00,
2013-01-24 08:02:00,51.1,48.0,30.34,NE,45,1.0,2.0,89,0.00,,,0.00,meteohub,2013-01-24 13:02:00,
2013-01-24 08:04:00,51.1,48.0,30.35,NE,45,1.0,2.0,89,0.00,,,0.00,meteohub,2013-01-24 13:04:00,
2013-01-24 08:07:00,51.3,48.4,30.35,North,0,2.0,2.0,90,0.00,,,0.00,meteohub,2013-01-24 13:07:00,
2013-01-24 08:09:00,51.4,48.6,30.35,North,0,2.0,2.0,90,0.00,,,0.00,meteohub,2013-01-24 13:09:00,
2013-01-24 08:12:00,51.6,48.7,30.35,North,0,2.0,2.0,90,0.00,,,0.00,meteohub,2013-01-24 13:12:00,
2013-01-24 08:13:00,51.6,48.7,30.35,North,0,2.0,2.0,90,0.00,,,0.00,meteohub,2013-01-24 13:13:00,
2013-01-24 08:15:00,52.0,48.9,30.35,North,0,2.0,2.0,89,0.00,,,0.00,meteohub,2013-01-24 13:15:00,
2013-01-24 08:16:00,52.0,49.1,30.35,North,0,2.0,2.0,90,0.00,,,0.00,meteohub,2013-01-24 13:16:00,
2013-01-24 08:19:00,52.3,49.5,30.35,North,0,2.0,2.0,90,0.00,,,0.00,meteohub,2013-01-24 13:19:00,
2013-01-24 08:22:00,52.7,49.8,30.35,North,0,2.0,2.0,90,0.00,,,0.00,meteohub,2013-01-24 13:22:00,
2013-01-24 08:25:00,53.4,50.5,30.35,North,0,2.0,2.0,90,0.00,,,0.00,meteohub,2013-01-24 13:25:00,
2013-01-24 08:26:00,53.6,50.4,30.35,North,0,2.0,2.0,89,0.00,,,0.00,meteohub,2013-01-24 13:26:00,
2013-01-24 08:27:00,53.8,50.4,30.35,North,0,2.0,2.0,88,0.00,,,0.00,meteohub,2013-01-24 13:27:00,
2013-01-24 08:29:00,54.0,50.5,30.35,NE,45,2.0,2.0,88,0.00,,,0.00,meteohub,2013-01-24 13:29:00,
2013-01-24 08:32:00,54.3,50.9,30.35,North,0,2.0,2.0,88,0.00,,,0.00,meteohub,2013-01-24 13:32:00,
2013-01-24 08:33:00,54.5,51.1,30.35,North,0,2.0,2.0,88,0.00,,,0.00,meteohub,2013-01-24 13:33:00,
2013-01-24 08:34:00,54.5,50.7,30.35,NE,45,2.0,2.0,87,0.00,,,0.00,meteohub,2013-01-24 13:34:00,
2013-01-24 08:38:00,55.0,51.3,30.35,North,0,2.0,2.0,87,0.00,,,0.00,meteohub,2013-01-24 13:38:00,
2013-01-24 08:39:00,55.0,51.3,30.35,NE,45,2.0,2.0,87,0.00,,,0.00,meteohub,2013-01-24 13:39:00,
2013-01-24 08:40:00,55.2,51.4,30.35,North,0,2.0,2.0,87,0.00,,,0.00,meteohub,2013-01-24 13:40:00,
2013-01-24 08:44:00,55.9,52.2,30.35,North,0,2.0,2.0,87,0.00,,,0.00,meteohub,2013-01-24 13:44:00,
2013-01-24 08:45:00,55.9,51.8,30.35,NE,45,2.0,2.0,86,0.00,,,0.00,meteohub,2013-01-24 13:45:00,
2013-01-24 08:46:00,56.1,52.0,30.35,NE,45,2.0,2.0,86,0.00,,,0.00,meteohub,2013-01-24 13:46:00,
2013-01-24 08:49:00,56.5,52.3,30.36,NE,45,2.0,2.0,86,0.00,,,0.00,meteohub,2013-01-24 13:49:00,
2013-01-24 08:50:00,56.7,52.5,30.36,NE,45,2.0,2.0,86,0.00,,,0.00,meteohub,2013-01-24 13:50:00,
2013-01-24 08:51:00,56.7,52.5,30.36,NE,45,2.0,2.0,86,0.00,,,0.00,meteohub,2013-01-24 13:51:00,
2013-01-24 08:52:00,56.8,52.7,30.36,NE,45,2.0,2.0,86,0.00,,,0.00,meteohub,2013-01-24 13:52:00,
2013-01-24 08:54:00,57.2,52.3,30.36,NE,45,2.0,2.0,84,0.00,,,0.00,meteohub,2013-01-24 13:54:00,
2013-01-24 08:57:00,57.4,52.5,30.36,East,90,2.0,2.0,84,0.00,,,0.00,meteohub,2013-01-24 13:57:00,
2013-01-24 09:00:00,57.4,52.5,30.36,North,0,2.0,2.0,84,0.00,,,0.00,meteohub,2013-01-24 14:00:00,
2013-01-24 09:02:00,57.6,52.5,30.36,North,0,2.0,2.0,83,0.00,,,0.00,meteohub,2013-01-24 14:02:00,
2013-01-24 09:04:00,57.6,52.5,30.36,NE,45,2.0,2.0,83,0.00,,,0.00,meteohub,2013-01-24 14:04:00,
2013-01-24 09:07:00,57.6,52.5,30.36,NE,45,3.0,3.0,83,0.00,,,0.00,meteohub,2013-01-24 14:07:00,
2013-01-24 09:08:00,57.6,52.5,30.36,North,0,2.0,2.0,83,0.00,,,0.00,meteohub,2013-01-24 14:08:00,
2013-01-24 09:09:00,57.7,52.7,30.36,North,0,2.0,2.0,83,0.00,,,0.00,meteohub,2013-01-24 14:09:00,
2013-01-24 09:12:00,58.1,52.9,30.36,NE,45,3.0,3.0,83,0.00,,,0.00,meteohub,2013-01-24 14:12:00,
2013-01-24 09:13:00,58.1,52.7,30.36,North,0,2.0,3.0,82,0.00,,,0.00,meteohub,2013-01-24 14:13:00,
2013-01-24 09:14:00,58.1,52.7,30.36,North,0,2.0,3.0,82,0.00,,,0.00,meteohub,2013-01-24 14:14:00,
2013-01-24 09:16:00,58.3,52.9,30.37,North,0,3.0,3.0,82,0.00,,,0.00,meteohub,2013-01-24 14:16:00,
2013-01-24 09:19:00,58.5,52.7,30.36,NE,45,3.0,3.0,81,0.00,,,0.00,meteohub,2013-01-24 14:19:00,
2013-01-24 09:20:00,58.5,52.7,30.36,North,0,3.0,3.0,81,0.00,,,0.00,meteohub,2013-01-24 14:20:00,
2013-01-24 09:24:00,58.6,52.5,30.36,North,0,4.0,4.0,80,0.00,,,0.00,meteohub,2013-01-24 14:24:00,
2013-01-24 09:25:00,58.6,52.5,30.37,North,0,2.0,3.0,80,0.00,,,0.00,meteohub,2013-01-24 14:25:00,
2013-01-24 09:26:00,58.6,52.5,30.37,North,0,3.0,3.0,80,0.00,,,0.00,meteohub,2013-01-24 14:26:00,
2013-01-24 09:31:00,59.0,52.5,30.37,NE,45,2.0,4.0,79,0.00,,,0.00,meteohub,2013-01-24 14:31:00,
2013-01-24 09:32:00,59.2,53.1,30.37,NE,45,2.0,4.0,80,0.00,,,0.00,meteohub,2013-01-24 14:32:00,
2013-01-24 09:33:00,59.2,53.1,30.37,North,0,2.0,4.0,80,0.00,,,0.00,meteohub,2013-01-24 14:33:00,
2013-01-24 09:37:00,59.5,53.4,30.37,North,0,3.0,4.0,80,0.00,,,0.00,meteohub,2013-01-24 14:37:00,
2013-01-24 09:38:00,59.7,53.2,30.36,North,0,2.0,4.0,79,0.00,,,0.00,meteohub,2013-01-24 14:38:00,
2013-01-24 09:39:00,60.1,53.6,30.37,North,0,2.0,4.0,79,0.00,,,0.00,meteohub,2013-01-24 14:39:00,
2013-01-24 09:43:00,60.3,53.4,30.37,NE,45,2.0,3.0,78,0.00,,,0.00,meteohub,2013-01-24 14:43:00,
2013-01-24 09:44:00,60.3,53.4,30.37,NE,45,3.0,3.0,78,0.00,,,0.00,meteohub,2013-01-24 14:44:00,
2013-01-24 09:45:00,60.3,53.4,30.37,NE,45,3.0,3.0,78,0.00,,,0.00,meteohub,2013-01-24 14:45:00,
2013-01-24 09:48:00,60.6,53.1,30.37,NE,45,3.0,4.0,76,0.00,,,0.00,meteohub,2013-01-24 14:48:00,
2013-01-24 09:50:00,60.8,52.9,30.37,North,0,2.0,4.0,75,0.00,,,0.00,meteohub,2013-01-24 14:50:00,
2013-01-24 09:51:00,61.0,52.7,30.38,North,0,3.0,4.0,74,0.00,,,0.00,meteohub,2013-01-24 14:51:00,
2013-01-24 09:53:00,61.3,53.1,30.37,North,0,2.0,4.0,74,0.00,,,0.00,meteohub,2013-01-24 14:53:00,
2013-01-24 09:54:00,61.5,53.2,30.37,North,0,2.0,4.0,74,0.00,,,0.00,meteohub,2013-01-24 14:54:00,
2013-01-24 09:55:00,61.5,53.2,30.37,North,0,2.0,4.0,74,0.00,,,0.00,meteohub,2013-01-24 14:55:00,
2013-01-24 09:57:00,61.9,53.1,30.38,North,0,3.0,4.0,73,0.00,,,0.00,meteohub,2013-01-24 14:57:00,
2013-01-24 10:00:00,62.2,53.1,30.37,East,90,2.0,4.0,72,0.00,,,0.00,meteohub,2013-01-24 15:00:00,
2013-01-24 10:02:00,62.6,53.1,30.37,North,0,2.0,3.0,71,0.00,,,0.00,meteohub,2013-01-24 15:02:00,
2013-01-24 10:03:00,62.6,53.1,30.37,NW,315,2.0,3.0,71,0.00,,,0.00,meteohub,2013-01-24 15:03:00,
2013-01-24 10:06:00,63.1,53.2,30.37,North,0,3.0,3.0,70,0.00,,,0.00,meteohub,2013-01-24 15:06:00,
2013-01-24 10:07:00,63.1,53.2,30.37,NE,45,2.0,3.0,70,0.00,,,0.00,meteohub,2013-01-24 15:07:00,
2013-01-24 10:09:00,63.5,52.7,30.38,North,0,3.0,3.0,68,0.00,,,0.00,meteohub,2013-01-24 15:09:00,
2013-01-24 10:11:00,63.7,52.5,30.37,NE,45,2.0,3.0,67,0.00,,,0.00,meteohub,2013-01-24 15:11:00,
2013-01-24 10:12:00,63.9,52.7,30.37,NE,45,2.0,3.0,67,0.00,,,0.00,meteohub,2013-01-24 15:12:00,
2013-01-24 10:14:00,64.2,53.1,30.38,NW,315,2.0,3.0,67,0.00,,,0.00,meteohub,2013-01-24 15:14:00,
2013-01-24 10:15:00,64.2,53.1,30.37,East,90,2.0,3.0,67,0.00,,,0.00,meteohub,2013-01-24 15:15:00,
2013-01-24 10:17:00,64.6,53.4,30.37,NE,45,2.0,3.0,67,0.00,,,0.00,meteohub,2013-01-24 15:17:00,
2013-01-24 10:19:00,64.6,52.9,30.37,North,0,2.0,3.0,66,0.00,,,0.00,meteohub,2013-01-24 15:19:00,
2013-01-24 10:21:00,64.8,52.7,30.37,North,0,2.0,3.0,65,0.00,,,0.00,meteohub,2013-01-24 15:21:00,
2013-01-24 10:22:00,64.9,52.9,30.38,North,0,2.0,3.0,65,0.00,,,0.00,meteohub,2013-01-24 15:22:00,
2013-01-24 10:25:00,65.3,52.9,30.38,East,90,2.0,3.0,64,0.00,,,0.00,meteohub,2013-01-24 15:25:00,
2013-01-24 10:27:00,65.5,52.5,30.38,NE,45,2.0,3.0,63,0.00,,,0.00,meteohub,2013-01-24 15:27:00,
2013-01-24 10:30:00,65.7,51.8,30.38,North,0,3.0,3.0,61,0.00,,,0.00,meteohub,2013-01-24 15:30:00,
2013-01-24 10:32:00,66.0,51.8,30.37,NE,45,3.0,3.0,60,0.00,,,0.00,meteohub,2013-01-24 15:32:00,
2013-01-24 10:35:00,66.6,51.3,30.37,NE,45,2.0,3.0,58,0.00,,,0.00,meteohub,2013-01-24 15:35:00,
2013-01-24 10:37:00,66.7,51.1,30.38,NE,45,2.0,3.0,57,0.00,,,0.00,meteohub,2013-01-24 15:37:00,
2013-01-24 10:38:00,66.7,51.1,30.38,North,0,2.0,3.0,57,0.00,,,0.00,meteohub,2013-01-24 15:38:00,
2013-01-24 10:39:00,66.7,51.1,30.38,North,0,2.0,3.0,57,0.00,,,0.00,meteohub,2013-01-24 15:39:00,
2013-01-24 10:40:00,67.1,50.9,30.38,North,0,3.0,3.0,56,0.00,,,0.00,meteohub,2013-01-24 15:40:00,
2013-01-24 10:43:00,67.1,50.4,30.38,North,0,2.0,3.0,55,0.00,,,0.00,meteohub,2013-01-24 15:43:00,
2013-01-24 10:44:00,67.1,50.4,30.37,North,0,2.0,3.0,55,0.00,,,0.00,meteohub,2013-01-24 15:44:00,
2013-01-24 10:45:00,67.3,50.5,30.37,North,0,2.0,3.0,55,0.00,,,0.00,meteohub,2013-01-24 15:45:00,
2013-01-24 10:46:00,67.5,50.7,30.37,North,0,2.0,3.0,55,0.00,,,0.00,meteohub,2013-01-24 15:46:00,
2013-01-24 10:49:00,67.6,49.8,30.37,NW,315,3.0,3.0,53,0.00,,,0.00,meteohub,2013-01-24 15:49:00,
2013-01-24 10:50:00,67.8,49.1,30.38,NE,45,2.0,3.0,51,0.00,,,0.00,meteohub,2013-01-24 15:50:00,
2013-01-24 10:52:00,68.0,48.7,30.37,North,0,2.0,3.0,50,0.00,,,0.00,meteohub,2013-01-24 15:52:00,
2013-01-24 10:53:00,68.2,48.9,30.37,NE,45,2.0,3.0,50,0.00,,,0.00,meteohub,2013-01-24 15:53:00,
2013-01-24 10:56:00,68.4,48.4,30.38,NE,45,2.0,3.0,49,0.00,,,0.00,meteohub,2013-01-24 15:56:00,
2013-01-24 10:57:00,68.4,48.4,30.38,NE,45,2.0,3.0,49,0.00,,,0.00,meteohub,2013-01-24 15:57:00,
2013-01-24 10:59:00,68.5,48.0,30.37,North,0,4.0,4.0,48,0.00,,,0.00,meteohub,2013-01-24 15:59:00,
2013-01-24 11:02:00,68.4,46.8,30.37,NW,315,2.0,3.0,46,0.00,,,0.00,meteohub,2013-01-24 16:02:00,
2013-01-24 11:03:00,68.4,46.8,30.37,North,0,3.0,3.0,46,0.00,,,0.00,meteohub,2013-01-24 16:03:00,
2013-01-24 11:05:00,68.5,48.0,30.37,SW,225,2.0,3.0,48,0.00,,,0.00,meteohub,2013-01-24 16:05:00,
2013-01-24 11:08:00,69.1,48.6,30.37,North,0,2.0,4.0,48,0.00,,,0.00,meteohub,2013-01-24 16:08:00,
2013-01-24 11:09:00,69.1,48.0,30.36,NE,45,2.0,4.0,47,0.00,,,0.00,meteohub,2013-01-24 16:09:00,
2013-01-24 11:12:00,69.3,48.7,30.36,NW,315,2.0,4.0,48,0.00,,,0.00,meteohub,2013-01-24 16:12:00,
2013-01-24 11:13:00,69.3,48.2,30.36,SW,225,3.0,4.0,47,0.00,,,0.00,meteohub,2013-01-24 16:13:00,
2013-01-24 11:14:00,69.3,48.2,30.36,NW,315,3.0,4.0,47,0.00,,,0.00,meteohub,2013-01-24 16:14:00,
2013-01-24 11:18:00,69.4,47.8,30.36,North,0,2.0,3.0,46,0.00,,,0.00,meteohub,2013-01-24 16:18:00,
2013-01-24 11:19:00,69.6,47.8,30.36,NE,45,2.0,3.0,46,0.00,,,0.00,meteohub,2013-01-24 16:19:00,
2013-01-24 11:23:00,69.6,47.8,30.36,North,0,3.0,3.0,46,0.00,,,0.00,meteohub,2013-01-24 16:23:00,
2013-01-24 11:24:00,69.6,47.3,30.36,East,90,3.0,3.0,45,0.00,,,0.00,meteohub,2013-01-24 16:24:00,
2013-01-24 11:25:00,69.6,47.3,30.36,North,0,2.0,3.0,45,0.00,,,0.00,meteohub,2013-01-24 16:25:00,
2013-01-24 11:27:00,69.6,47.3,30.36,North,0,3.0,3.0,45,0.00,,,0.00,meteohub,2013-01-24 16:27:00,
2013-01-24 11:30:00,69.4,47.1,30.36,East,90,2.0,3.0,45,0.00,,,0.00,meteohub,2013-01-24 16:30:00,
2013-01-24 11:32:00,69.4,47.1,30.35,North,0,2.0,3.0,45,0.00,,,0.00,meteohub,2013-01-24 16:32:00,
2013-01-24 11:35:00,69.8,46.9,30.35,NW,315,2.0,3.0,44,0.00,,,0.00,meteohub,2013-01-24 16:35:00,
2013-01-24 11:36:00,69.8,47.5,30.35,North,0,3.0,3.0,45,0.00,,,0.00,meteohub,2013-01-24 16:36:00,
2013-01-24 11:37:00,70.0,47.7,30.35,NW,315,2.0,3.0,45,0.00,,,0.00,meteohub,2013-01-24 16:37:00,
2013-01-24 11:39:00,70.2,47.8,30.35,NE,45,2.0,3.0,45,0.00,,,0.00,meteohub,2013-01-24 16:39:00,
2013-01-24 11:41:00,70.3,47.5,30.35,NE,45,2.0,3.0,44,0.00,,,0.00,meteohub,2013-01-24 16:41:00,
2013-01-24 11:42:00,70.3,47.5,30.35,NE,45,2.0,3.0,44,0.00,,,0.00,meteohub,2013-01-24 16:42:00,
2013-01-24 11:45:00,70.3,47.5,30.35,East,90,2.0,3.0,44,0.00,,,0.00,meteohub,2013-01-24 16:45:00,
2013-01-24 11:47:00,70.5,47.5,30.35,North,0,2.0,3.0,44,0.00,,,0.00,meteohub,2013-01-24 16:47:00,
2013-01-24 11:48:00,70.5,46.9,30.35,NE,45,3.0,3.0,43,0.00,,,0.00,meteohub,2013-01-24 16:48:00,
2013-01-24 11:50:00,70.7,47.1,30.35,North,0,2.0,3.0,43,0.00,,,0.00,meteohub,2013-01-24 16:50:00,
2013-01-24 11:52:00,70.7,47.1,30.35,North,0,4.0,4.0,43,0.00,,,0.00,meteohub,2013-01-24 16:52:00,
2013-01-24 11:53:00,70.5,46.9,30.35,North,0,3.0,3.0,43,0.00,,,0.00,meteohub,2013-01-24 16:53:00,
2013-01-24 11:56:00,70.5,46.9,30.35,North,0,2.0,4.0,43,0.00,,,0.00,meteohub,2013-01-24 16:56:00,
2013-01-24 11:57:00,70.5,46.9,30.36,North,0,2.0,4.0,43,0.00,,,0.00,meteohub,2013-01-24 16:57:00,
2013-01-24 11:58:00,70.7,47.1,30.35,North,0,4.0,4.0,43,0.00,,,0.00,meteohub,2013-01-24 16:58:00,
2013-01-24 12:00:00,70.7,46.4,30.35,NE,45,2.0,4.0,42,0.00,,,0.00,meteohub,2013-01-24 17:00:00,
2013-01-24 12:01:00,70.7,46.4,30.35,North,0,3.0,4.0,42,0.00,,,0.00,meteohub,2013-01-24 17:01:00,
2013-01-24 12:03:00,70.9,47.3,30.35,North,0,2.0,4.0,43,0.00,,,0.00,meteohub,2013-01-24 17:03:00,
2013-01-24 12:04:00,70.9,47.3,30.35,North,0,2.0,4.0,43,0.00,,,0.00,meteohub,2013-01-24 17:04:00,
2013-01-24 12:07:00,71.2,47.7,30.35,NW,315,4.0,4.0,43,0.00,,,0.00,meteohub,2013-01-24 17:07:00,
2013-01-24 12:08:00,71.2,47.7,30.35,North,0,4.0,4.0,43,0.00,,,0.00,meteohub,2013-01-24 17:08:00,
2013-01-24 12:10:00,71.2,46.4,30.35,North,0,2.0,4.0,41,0.00,,,0.00,meteohub,2013-01-24 17:10:00,
2013-01-24 12:14:00,71.2,47.7,30.35,North,0,2.0,4.0,43,0.00,,,0.00,meteohub,2013-01-24 17:14:00,
2013-01-24 12:16:00,71.6,47.3,30.35,North,0,2.0,4.0,42,0.00,,,0.00,meteohub,2013-01-24 17:16:00,
2013-01-24 12:17:00,71.8,47.5,30.35,North,0,2.0,4.0,42,0.00,,,0.00,meteohub,2013-01-24 17:17:00,
2013-01-24 12:20:00,72.0,45.7,30.35,NW,315,2.0,4.0,39,0.00,,,0.00,meteohub,2013-01-24 17:20:00,
2013-01-24 12:22:00,72.0,46.4,30.35,North,0,3.0,4.0,40,0.00,,,0.00,meteohub,2013-01-24 17:22:00,
2013-01-24 12:23:00,72.0,45.7,30.34,NW,315,4.0,4.0,39,0.00,,,0.00,meteohub,2013-01-24 17:23:00,
2013-01-24 12:27:00,72.0,46.4,30.34,NE,45,3.0,4.0,40,0.00,,,0.00,meteohub,2013-01-24 17:27:00,
2013-01-24 12:28:00,72.0,46.4,30.35,North,0,2.0,4.0,40,0.00,,,0.00,meteohub,2013-01-24 17:28:00,
2013-01-24 12:29:00,72.0,46.9,30.34,North,0,4.0,4.0,41,0.00,,,0.00,meteohub,2013-01-24 17:29:00,
2013-01-24 12:30:00,72.1,45.9,30.35,North,0,5.0,5.0,39,0.00,,,0.00,meteohub,2013-01-24 17:30:00,
2013-01-24 12:32:00,71.8,44.1,30.34,NE,45,2.0,5.0,37,0.00,,,0.00,meteohub,2013-01-24 17:32:00,
2013-01-24 12:35:00,71.8,44.8,30.34,North,0,2.0,5.0,38,0.00,,,0.00,meteohub,2013-01-24 17:35:00,
2013-01-24 12:36:00,71.8,44.8,30.34,North,0,2.0,5.0,38,0.00,,,0.00,meteohub,2013-01-24 17:36:00,
2013-01-24 12:37:00,71.8,44.8,30.34,NE,45,2.0,5.0,38,0.00,,,0.00,meteohub,2013-01-24 17:37:00,
2013-01-24 12:40:00,72.0,46.9,30.34,NW,315,3.0,5.0,41,0.00,,,0.00,meteohub,2013-01-24 17:40:00,
2013-01-24 12:42:00,72.1,47.1,30.34,North,0,2.0,5.0,41,0.00,,,0.00,meteohub,2013-01-24 17:42:00,
2013-01-24 12:47:00,72.1,45.9,30.33,NNW,338,3.0,4.0,39,0.00,,,0.00,meteohub,2013-01-24 17:47:00,
2013-01-24 12:49:00,72.1,46.4,30.33,NW,315,3.0,4.0,40,0.00,,,0.00,meteohub,2013-01-24 17:49:00,
2013-01-24 12:52:00,72.1,45.9,30.33,East,90,3.0,4.0,39,0.00,,,0.00,meteohub,2013-01-24 17:52:00,
2013-01-24 12:57:00,72.1,47.1,30.32,West,270,2.0,4.0,41,0.00,,,0.00,meteohub,2013-01-24 17:57:00,
2013-01-24 12:58:00,72.1,47.1,30.33,North,0,2.0,4.0,41,0.00,,,0.00,meteohub,2013-01-24 17:58:00,
2013-01-24 13:01:00,72.3,48.0,30.32,North,0,2.0,4.0,42,0.00,,,0.00,meteohub,2013-01-24 18:01:00,
2013-01-24 13:03:00,72.3,47.3,30.32,North,0,2.0,4.0,41,0.00,,,0.00,meteohub,2013-01-24 18:03:00,
2013-01-24 13:05:00,72.1,47.1,30.32,NE,45,2.0,4.0,41,0.00,,,0.00,meteohub,2013-01-24 18:05:00,
2013-01-24 13:06:00,72.1,47.1,30.32,East,90,3.0,4.0,41,0.00,,,0.00,meteohub,2013-01-24 18:06:00,
2013-01-24 13:08:00,72.3,47.3,30.32,East,90,2.0,4.0,41,0.00,,,0.00,meteohub,2013-01-24 18:08:00,
2013-01-24 13:09:00,72.3,47.3,30.32,North,0,2.0,4.0,41,0.00,,,0.00,meteohub,2013-01-24 18:09:00,
2013-01-24 13:12:00,72.1,47.1,30.32,NE,45,2.0,4.0,41,0.00,,,0.00,meteohub,2013-01-24 18:12:00,
2013-01-24 13:15:00,72.3,47.3,30.32,NW,315,2.0,4.0,41,0.00,,,0.00,meteohub,2013-01-24 18:15:00,
2013-01-24 13:18:00,72.1,47.1,30.31,NE,45,2.0,4.0,41,0.00,,,0.00,meteohub,2013-01-24 18:18:00,
2013-01-24 13:20:00,72.0,46.9,30.31,NW,315,3.0,5.0,41,0.00,,,0.00,meteohub,2013-01-24 18:20:00,
2013-01-24 13:21:00,72.0,46.9,30.31,NW,315,2.0,5.0,41,0.00,,,0.00,meteohub,2013-01-24 18:21:00,
2013-01-24 13:22:00,72.0,46.9,30.31,North,0,2.0,5.0,41,0.00,,,0.00,meteohub,2013-01-24 18:22:00,
2013-01-24 13:23:00,72.0,47.7,30.32,SW,225,4.0,5.0,42,0.00,,,0.00,meteohub,2013-01-24 18:23:00,
2013-01-24 13:25:00,72.1,47.8,30.32,South,180,4.0,5.0,42,0.00,,,0.00,meteohub,2013-01-24 18:25:00,
2013-01-24 13:27:00,72.3,47.3,30.31,NW,315,3.0,5.0,41,0.00,,,0.00,meteohub,2013-01-24 18:27:00,
2013-01-24 13:28:00,72.1,47.1,30.31,North,0,2.0,5.0,41,0.00,,,0.00,meteohub,2013-01-24 18:28:00,
2013-01-24 13:30:00,72.1,47.1,30.31,SW,225,2.0,5.0,41,0.00,,,0.00,meteohub,2013-01-24 18:30:00,
2013-01-24 13:32:00,72.1,47.1,30.31,NE,45,4.0,5.0,41,0.00,,,0.00,meteohub,2013-01-24 18:32:00,
2013-01-24 13:33:00,72.1,47.1,30.31,NE,45,4.0,5.0,41,0.00,,,0.00,meteohub,2013-01-24 18:33:00,
2013-01-24 13:34:00,72.3,47.3,30.31,SE,135,2.0,5.0,41,0.00,,,0.00,meteohub,2013-01-24 18:34:00,
2013-01-24 13:37:00,72.3,47.3,30.31,North,0,2.0,4.0,41,0.00,,,0.00,meteohub,2013-01-24 18:37:00,
2013-01-24 13:38:00,72.3,48.0,30.31,NE,45,3.0,4.0,42,0.00,,,0.00,meteohub,2013-01-24 18:38:00,
2013-01-24 13:39:00,72.3,48.0,30.31,East,90,2.0,4.0,42,0.00,,,0.00,meteohub,2013-01-24 18:39:00,
2013-01-24 13:42:00,72.3,47.3,30.31,East,90,2.0,4.0,41,0.00,,,0.00,meteohub,2013-01-24 18:42:00,
2013-01-24 13:44:00,72.0,47.7,30.31,North,0,2.0,4.0,42,0.00,,,0.00,meteohub,2013-01-24 18:44:00,
2013-01-24 13:46:00,72.0,47.7,30.31,North,0,3.0,4.0,42,0.00,,,0.00,meteohub,2013-01-24 18:46:00,
2013-01-24 13:48:00,71.6,46.6,30.31,NW,315,2.0,4.0,41,0.00,,,0.00,meteohub,2013-01-24 18:48:00,
2013-01-24 13:51:00,71.6,47.3,30.31,North,0,2.0,4.0,42,0.00,,,0.00,meteohub,2013-01-24 18:51:00,
2013-01-24 13:52:00,71.8,47.5,30.31,NW,315,3.0,4.0,42,0.00,,,0.00,meteohub,2013-01-24 18:52:00,
2013-01-24 13:54:00,72.0,47.7,30.30,North,0,4.0,4.0,42,0.00,,,0.00,meteohub,2013-01-24 18:54:00,
2013-01-24 13:56:00,72.1,47.8,30.30,SE,135,3.0,4.0,42,0.00,,,0.00,meteohub,2013-01-24 18:56:00,
2013-01-24 13:57:00,72.1,47.8,30.30,SE,135,3.0,4.0,42,0.00,,,0.00,meteohub,2013-01-24 18:57:00,
2013-01-24 14:01:00,72.0,47.7,30.30,SE,135,1.0,5.0,42,0.00,,,0.00,meteohub,2013-01-24 19:01:00,
2013-01-24 14:02:00,72.0,47.7,30.30,NE,45,2.0,5.0,42,0.00,,,0.00,meteohub,2013-01-24 19:02:00,
2013-01-24 14:07:00,71.4,47.8,30.30,NE,45,4.0,5.0,43,0.00,,,0.00,meteohub,2013-01-24 19:07:00,
2013-01-24 14:08:00,71.2,48.2,30.30,NW,315,3.0,5.0,44,0.00,,,0.00,meteohub,2013-01-24 19:08:00,
2013-01-24 14:12:00,71.4,48.4,30.30,NE,45,4.0,5.0,44,0.00,,,0.00,meteohub,2013-01-24 19:12:00,
2013-01-24 14:16:00,71.4,48.4,30.30,North,0,3.0,5.0,44,0.00,,,0.00,meteohub,2013-01-24 19:16:00,
2013-01-24 14:17:00,71.4,48.4,30.30,NW,315,4.0,5.0,44,0.00,,,0.00,meteohub,2013-01-24 19:17:00,
2013-01-24 14:18:00,71.4,48.4,30.30,NW,315,3.0,5.0,44,0.00,,,0.00,meteohub,2013-01-24 19:18:00,
2013-01-24 14:21:00,71.2,47.7,30.30,North,0,4.0,4.0,43,0.00,,,0.00,meteohub,2013-01-24 19:21:00,
2013-01-24 14:22:00,71.2,47.7,30.30,North,0,4.0,4.0,43,0.00,,,0.00,meteohub,2013-01-24 19:22:00,
2013-01-24 14:23:00,71.1,47.5,30.30,North,0,4.0,4.0,43,0.00,,,0.00,meteohub,2013-01-24 19:23:00,
2013-01-24 14:24:00,70.9,47.3,30.30,NE,45,4.0,4.0,43,0.00,,,0.00,meteohub,2013-01-24 19:24:00,
2013-01-24 14:26:00,70.9,47.8,30.30,North,0,2.0,4.0,44,0.00,,,0.00,meteohub,2013-01-24 19:26:00,
2013-01-24 14:28:00,70.9,48.6,30.29,North,0,2.0,4.0,45,0.00,,,0.00,meteohub,2013-01-24 19:28:00,
2013-01-24 14:30:00,71.1,48.6,30.30,North,0,2.0,4.0,45,0.00,,,0.00,meteohub,2013-01-24 19:30:00,
2013-01-24 14:31:00,71.2,48.2,30.29,North,0,3.0,4.0,44,0.00,,,0.00,meteohub,2013-01-24 19:31:00,
2013-01-24 14:34:00,71.4,48.4,30.29,NW,315,3.0,4.0,44,0.00,,,0.00,meteohub,2013-01-24 19:34:00,
2013-01-24 14:35:00,71.4,48.4,30.29,North,0,2.0,4.0,44,0.00,,,0.00,meteohub,2013-01-24 19:35:00,
2013-01-24 14:36:00,71.4,48.4,30.29,North,0,4.0,4.0,44,0.00,,,0.00,meteohub,2013-01-24 19:36:00,
2013-01-24 14:37:00,71.4,48.4,30.29,North,0,2.0,4.0,44,0.00,,,0.00,meteohub,2013-01-24 19:37:00,
2013-01-24 14:41:00,71.4,47.8,30.29,North,0,3.0,4.0,43,0.00,,,0.00,meteohub,2013-01-24 19:41:00,
2013-01-24 14:42:00,71.4,47.8,30.29,North,0,3.0,4.0,43,0.00,,,0.00,meteohub,2013-01-24 19:42:00,
2013-01-24 14:47:00,70.7,47.1,30.29,North,0,3.0,4.0,43,0.00,,,0.00,meteohub,2013-01-24 19:47:00,
2013-01-24 14:48:00,70.7,47.1,30.29,North,0,4.0,4.0,43,0.00,,,0.00,meteohub,2013-01-24 19:48:00,
2013-01-24 14:53:00,70.5,47.5,30.29,SE,135,4.0,5.0,44,0.00,,,0.00,meteohub,2013-01-24 19:53:00,
2013-01-24 14:54:00,70.3,47.5,30.29,North,0,3.0,5.0,44,0.00,,,0.00,meteohub,2013-01-24 19:54:00,
2013-01-24 14:57:00,70.3,47.5,30.29,SE,135,4.0,5.0,44,0.00,,,0.00,meteohub,2013-01-24 19:57:00,
2013-01-24 14:58:00,70.5,48.2,30.29,North,0,4.0,5.0,45,0.00,,,0.00,meteohub,2013-01-24 19:58:00,
2013-01-24 15:00:00,70.7,48.4,30.29,North,0,3.0,5.0,45,0.00,,,0.00,meteohub,2013-01-24 20:00:00,
2013-01-24 15:01:00,70.7,48.4,30.29,NW,315,3.0,5.0,45,0.00,,,0.00,meteohub,2013-01-24 20:01:00,
2013-01-24 15:03:00,70.7,48.4,30.29,NW,315,6.0,6.0,45,0.00,,,0.00,meteohub,2013-01-24 20:03:00,
2013-01-24 15:04:00,70.9,49.1,30.29,NW,315,3.0,5.0,46,0.00,,,0.00,meteohub,2013-01-24 20:04:00,
2013-01-24 15:07:00,71.1,49.8,30.29,North,0,2.0,6.0,47,0.00,,,0.00,meteohub,2013-01-24 20:07:00,
2013-01-24 15:08:00,71.1,49.8,30.29,North,0,4.0,6.0,47,0.00,,,0.00,meteohub,2013-01-24 20:08:00,
2013-01-24 15:09:00,71.1,49.3,30.29,NW,315,3.0,6.0,46,0.00,,,0.00,meteohub,2013-01-24 20:09:00,
2013-01-24 15:11:00,70.9,49.1,30.29,NW,315,3.0,6.0,46,0.00,,,0.00,meteohub,2013-01-24 20:11:00,
2013-01-24 15:13:00,70.7,48.9,30.29,North,0,3.0,6.0,46,0.00,,,0.00,meteohub,2013-01-24 20:13:00,
2013-01-24 15:14:00,70.7,48.9,30.29,NE,45,4.0,6.0,46,0.00,,,0.00,meteohub,2013-01-24 20:14:00,
2013-01-24 15:16:00,70.5,48.7,30.29,NW,315,3.0,6.0,46,0.00,,,0.00,meteohub,2013-01-24 20:16:00,
2013-01-24 15:18:00,70.5,48.7,30.29,West,270,2.0,6.0,46,0.00,,,0.00,meteohub,2013-01-24 20:18:00,
2013-01-24 15:21:00,70.3,49.1,30.29,NE,45,5.0,5.0,47,0.00,,,0.00,meteohub,2013-01-24 20:21:00,
2013-01-24 15:22:00,70.3,49.1,30.29,NW,315,4.0,4.0,47,0.00,,,0.00,meteohub,2013-01-24 20:22:00,
2013-01-24 15:24:00,70.2,48.9,30.29,North,0,4.0,4.0,47,0.00,,,0.00,meteohub,2013-01-24 20:24:00,
2013-01-24 15:26:00,70.0,48.7,30.29,North,0,4.0,5.0,47,0.00,,,0.00,meteohub,2013-01-24 20:26:00,
2013-01-24 15:27:00,70.0,48.7,30.29,North,0,4.0,5.0,47,0.00,,,0.00,meteohub,2013-01-24 20:27:00,
2013-01-24 15:29:00,70.0,50.0,30.29,NW,315,4.0,5.0,49,0.00,,,0.00,meteohub,2013-01-24 20:29:00,
2013-01-24 15:32:00,70.0,50.0,30.29,NW,315,2.0,5.0,49,0.00,,,0.00,meteohub,2013-01-24 20:32:00,
2013-01-24 15:33:00,70.0,50.0,30.29,North,0,2.0,5.0,49,0.00,,,0.00,meteohub,2013-01-24 20:33:00,
2013-01-24 15:36:00,70.0,50.5,30.29,NW,315,3.0,5.0,50,0.00,,,0.00,meteohub,2013-01-24 20:36:00,
2013-01-24 15:39:00,70.0,50.5,30.29,NW,315,4.0,5.0,50,0.00,,,0.00,meteohub,2013-01-24 20:39:00,
2013-01-24 15:40:00,70.0,50.5,30.29,West,270,3.0,5.0,50,0.00,,,0.00,meteohub,2013-01-24 20:40:00,
2013-01-24 15:41:00,70.0,51.1,30.29,NW,315,3.0,4.0,51,0.00,,,0.00,meteohub,2013-01-24 20:41:00,
2013-01-24 15:44:00,69.6,51.8,30.30,North,0,3.0,4.0,53,0.00,,,0.00,meteohub,2013-01-24 20:44:00,
2013-01-24 15:45:00,69.6,51.8,30.29,NW,315,2.0,4.0,53,0.00,,,0.00,meteohub,2013-01-24 20:45:00,
2013-01-24 15:46:00,69.8,51.4,30.29,West,270,4.0,4.0,52,0.00,,,0.00,meteohub,2013-01-24 20:46:00,
2013-01-24 15:47:00,69.8,51.4,30.29,West,270,4.0,4.0,52,0.00,,,0.00,meteohub,2013-01-24 20:47:00,
2013-01-24 15:50:00,70.0,51.6,30.29,North,0,3.0,4.0,52,0.00,,,0.00,meteohub,2013-01-24 20:50:00,
2013-01-24 15:52:00,69.8,51.4,30.30,North,0,2.0,4.0,52,0.00,,,0.00,meteohub,2013-01-24 20:52:00,
2013-01-24 15:53:00,69.8,51.4,30.30,North,0,2.0,4.0,52,0.00,,,0.00,meteohub,2013-01-24 20:53:00,
2013-01-24 15:54:00,70.0,51.6,30.30,North,0,3.0,4.0,52,0.00,,,0.00,meteohub,2013-01-24 20:54:00,
2013-01-24 15:56:00,70.0,51.6,30.29,North,0,4.0,4.0,52,0.00,,,0.00,meteohub,2013-01-24 20:56:00,
2013-01-24 15:58:00,69.6,52.2,30.30,NW,315,2.0,4.0,54,0.00,,,0.00,meteohub,2013-01-24 20:58:00,
2013-01-24 15:59:00,69.6,52.2,30.30,North,0,2.0,4.0,54,0.00,,,0.00,meteohub,2013-01-24 20:59:00,
2013-01-24 16:01:00,69.4,52.2,30.29,North,0,3.0,6.0,54,0.00,,,0.00,meteohub,2013-01-24 21:01:00,
2013-01-24 16:04:00,69.3,52.3,30.30,North,0,2.0,6.0,55,0.00,,,0.00,meteohub,2013-01-24 21:04:00,
2013-01-24 16:06:00,69.3,52.3,30.30,North,0,3.0,6.0,55,0.00,,,0.00,meteohub,2013-01-24 21:06:00,
2013-01-24 16:09:00,69.1,52.2,30.29,NW,315,2.0,6.0,55,0.00,,,0.00,meteohub,2013-01-24 21:09:00,
2013-01-24 16:10:00,69.1,52.2,30.30,North,0,2.0,6.0,55,0.00,,,0.00,meteohub,2013-01-24 21:10:00,
2013-01-24 16:11:00,69.1,52.7,30.30,North,0,2.0,6.0,56,0.00,,,0.00,meteohub,2013-01-24 21:11:00,
2013-01-24 16:12:00,69.1,52.7,30.30,North,0,2.0,6.0,56,0.00,,,0.00,meteohub,2013-01-24 21:12:00,
2013-01-24 16:16:00,69.1,52.7,30.30,NW,315,3.0,4.0,56,0.00,,,0.00,meteohub,2013-01-24 21:16:00,
2013-01-24 16:17:00,68.9,52.5,30.30,North,0,4.0,4.0,56,0.00,,,0.00,meteohub,2013-01-24 21:17:00,
2013-01-24 16:18:00,68.9,52.5,30.30,NW,315,2.0,4.0,56,0.00,,,0.00,meteohub,2013-01-24 21:18:00,
2013-01-24 16:22:00,68.9,52.5,30.30,NE,45,2.0,4.0,56,0.00,,,0.00,meteohub,2013-01-24 21:22:00,
2013-01-24 16:23:00,68.9,52.5,30.30,East,90,2.0,4.0,56,0.00,,,0.00,meteohub,2013-01-24 21:23:00,
2013-01-24 16:25:00,68.9,53.1,30.30,SE,135,4.0,4.0,57,0.00,,,0.00,meteohub,2013-01-24 21:25:00,
2013-01-24 16:28:00,68.9,53.1,30.30,West,270,3.0,4.0,57,0.00,,,0.00,meteohub,2013-01-24 21:28:00,
2013-01-24 16:30:00,68.9,53.6,30.30,NE,45,2.0,4.0,58,0.00,,,0.00,meteohub,2013-01-24 21:30:00,
2013-01-24 16:31:00,69.1,53.6,30.30,NW,315,2.0,4.0,58,0.00,,,0.00,meteohub,2013-01-24 21:31:00,
2013-01-24 16:34:00,68.9,53.6,30.30,North,0,2.0,4.0,58,0.00,,,0.00,meteohub,2013-01-24 21:34:00,
2013-01-24 16:35:00,68.9,53.6,30.30,North,0,2.0,4.0,58,0.00,,,0.00,meteohub,2013-01-24 21:35:00,
2013-01-24 16:38:00,68.7,53.8,30.30,North,0,4.0,4.0,59,0.00,,,0.00,meteohub,2013-01-24 21:38:00,
2013-01-24 16:40:00,68.5,53.6,30.30,North,0,4.0,4.0,59,0.00,,,0.00,meteohub,2013-01-24 21:40:00,
2013-01-24 16:41:00,68.5,53.6,30.30,North,0,2.0,4.0,59,0.00,,,0.00,meteohub,2013-01-24 21:41:00,
2013-01-24 16:45:00,68.4,54.0,30.30,North,0,3.0,4.0,60,0.00,,,0.00,meteohub,2013-01-24 21:45:00,
2013-01-24 16:46:00,68.2,53.8,30.30,North,0,2.0,4.0,60,0.00,,,0.00,meteohub,2013-01-24 21:46:00,
2013-01-24 16:47:00,68.2,53.8,30.30,North,0,3.0,4.0,60,0.00,,,0.00,meteohub,2013-01-24 21:47:00,
2013-01-24 16:50:00,67.8,54.3,30.30,North,0,3.0,4.0,62,0.00,,,0.00,meteohub,2013-01-24 21:50:00,
2013-01-24 16:51:00,67.8,54.3,30.30,NW,315,3.0,4.0,62,0.00,,,0.00,meteohub,2013-01-24 21:51:00,
2013-01-24 16:52:00,67.8,54.3,30.30,NW,315,3.0,4.0,62,0.00,,,0.00,meteohub,2013-01-24 21:52:00,
2013-01-24 16:57:00,67.6,55.0,30.29,NW,315,2.0,4.0,64,0.00,,,0.00,meteohub,2013-01-24 21:57:00,
2013-01-24 16:58:00,67.5,54.9,30.30,North,0,2.0,4.0,64,0.00,,,0.00,meteohub,2013-01-24 21:58:00,
2013-01-24 17:00:00,67.5,54.9,30.30,NE,45,3.0,4.0,64,0.00,,,0.00,meteohub,2013-01-24 22:00:00,
2013-01-24 17:02:00,67.3,54.7,30.29,North,0,2.0,4.0,64,0.00,,,0.00,meteohub,2013-01-24 22:02:00,
2013-01-24 17:03:00,67.3,54.7,30.30,North,0,3.0,4.0,64,0.00,,,0.00,meteohub,2013-01-24 22:03:00,
2013-01-24 17:04:00,67.3,54.7,30.30,North,0,2.0,4.0,64,0.00,,,0.00,meteohub,2013-01-24 22:04:00,
2013-01-24 17:06:00,67.1,54.5,30.29,North,0,2.0,4.0,64,0.00,,,0.00,meteohub,2013-01-24 22:06:00,
2013-01-24 17:09:00,67.1,54.5,30.30,North,0,2.0,4.0,64,0.00,,,0.00,meteohub,2013-01-24 22:09:00,
2013-01-24 17:10:00,67.1,54.5,30.30,NE,45,2.0,4.0,64,0.00,,,0.00,meteohub,2013-01-24 22:10:00,
2013-01-24 17:12:00,66.9,54.9,30.29,NE,45,2.0,4.0,65,0.00,,,0.00,meteohub,2013-01-24 22:12:00,
2013-01-24 17:15:00,66.9,54.9,30.29,NE,45,4.0,4.0,65,0.00,,,0.00,meteohub,2013-01-24 22:15:00,
2013-01-24 17:18:00,66.7,54.7,30.29,North,0,2.0,3.0,65,0.00,,,0.00,meteohub,2013-01-24 22:18:00,
2013-01-24 17:20:00,66.6,54.5,30.29,North,0,2.0,3.0,65,0.00,,,0.00,meteohub,2013-01-24 22:20:00,
2013-01-24 17:21:00,66.4,54.7,30.29,NE,45,4.0,4.0,66,0.00,,,0.00,meteohub,2013-01-24 22:21:00,
2013-01-24 17:24:00,66.2,54.5,30.29,North,0,2.0,4.0,66,0.00,,,0.00,meteohub,2013-01-24 22:24:00,
2013-01-24 17:27:00,66.2,54.5,30.30,North,0,2.0,4.0,66,0.00,,,0.00,meteohub,2013-01-24 22:27:00,
2013-01-24 17:29:00,66.2,54.5,30.29,North,0,0.0,4.0,66,0.00,,,0.00,meteohub,2013-01-24 22:29:00,
2013-01-24 17:30:00,66.2,54.5,30.29,North,0,2.0,4.0,66,0.00,,,0.00,meteohub,2013-01-24 22:30:00,
2013-01-24 17:32:00,66.2,54.5,30.29,North,0,2.0,4.0,66,0.00,,,0.00,meteohub,2013-01-24 22:32:00,
2013-01-24 17:34:00,66.2,54.5,30.29,West,270,2.0,4.0,66,0.00,,,0.00,meteohub,2013-01-24 22:34:00,
2013-01-24 17:35:00,66.0,54.7,30.29,North,0,3.0,4.0,67,0.00,,,0.00,meteohub,2013-01-24 22:35:00,
2013-01-24 17:36:00,66.0,55.2,30.30,North,0,3.0,4.0,68,0.00,,,0.00,meteohub,2013-01-24 22:36:00,
2013-01-24 17:38:00,65.8,55.0,30.29,NE,45,2.0,4.0,68,0.00,,,0.00,meteohub,2013-01-24 22:38:00,
2013-01-24 17:40:00,65.7,54.9,30.29,NW,315,2.0,3.0,68,0.00,,,0.00,meteohub,2013-01-24 22:40:00,
2013-01-24 17:41:00,65.7,54.9,30.30,North,0,2.0,3.0,68,0.00,,,0.00,meteohub,2013-01-24 22:41:00,
2013-01-24 17:42:00,65.5,54.7,30.29,North,0,1.0,3.0,68,0.00,,,0.00,meteohub,2013-01-24 22:42:00,
2013-01-24 17:43:00,65.5,54.7,30.30,North,0,2.0,3.0,68,0.00,,,0.00,meteohub,2013-01-24 22:43:00,
2013-01-24 17:46:00,65.3,54.5,30.29,North,0,2.0,3.0,68,0.00,,,0.00,meteohub,2013-01-24 22:46:00,
2013-01-24 17:48:00,65.3,54.9,30.29,North,0,1.0,3.0,69,0.00,,,0.00,meteohub,2013-01-24 22:48:00,
2013-01-24 17:49:00,65.1,54.7,30.29,North,0,2.0,3.0,69,0.00,,,0.00,meteohub,2013-01-24 22:49:00,
2013-01-24 17:51:00,64.9,54.5,30.29,NE,45,2.0,3.0,69,0.00,,,0.00,meteohub,2013-01-24 22:51:00,
2013-01-24 17:52:00,64.9,54.5,30.29,NE,45,2.0,3.0,69,0.00,,,0.00,meteohub,2013-01-24 22:52:00,
2013-01-24 17:55:00,64.4,54.3,30.29,North,0,1.0,3.0,70,0.00,,,0.00,meteohub,2013-01-24 22:55:00,
2013-01-24 17:56:00,64.2,54.7,30.30,North,0,1.0,2.0,71,0.00,,,0.00,meteohub,2013-01-24 22:56:00,
2013-01-24 17:57:00,64.2,54.7,30.29,WNW,293,2.0,2.0,71,0.00,,,0.00,meteohub,2013-01-24 22:57:00,
2013-01-24 18:00:00,63.9,54.3,30.30,NE,45,1.0,2.0,71,0.00,,,0.00,meteohub,2013-01-24 23:00:00,
2013-01-24 18:01:00,63.9,54.3,30.29,NE,45,0.0,2.0,71,0.00,,,0.00,meteohub,2013-01-24 23:01:00,
2013-01-24 18:02:00,63.7,54.1,30.30,NE,45,0.0,2.0,71,0.00,,,0.00,meteohub,2013-01-24 23:02:00,
2013-01-24 18:03:00,63.7,54.1,30.30,NE,45,0.0,2.0,71,0.00,,,0.00,meteohub,2013-01-24 23:03:00,
2013-01-24 18:05:00,63.3,53.8,30.30,North,0,2.0,2.0,71,0.00,,,0.00,meteohub,2013-01-24 23:05:00,
2013-01-24 18:07:00,63.3,54.1,30.30,North,0,1.0,2.0,72,0.00,,,0.00,meteohub,2013-01-24 23:07:00,
2013-01-24 18:08:00,63.1,54.0,30.30,North,0,1.0,2.0,72,0.00,,,0.00,meteohub,2013-01-24 23:08:00,
2013-01-24 18:10:00,63.0,53.8,30.30,North,0,0.0,2.0,72,0.00,,,0.00,meteohub,2013-01-24 23:10:00,
2013-01-24 18:13:00,62.8,53.6,30.30,East,90,0.0,2.0,72,0.00,,,0.00,meteohub,2013-01-24 23:13:00,
2013-01-24 18:15:00,62.6,53.8,30.30,North,0,1.0,2.0,73,0.00,,,0.00,meteohub,2013-01-24 23:15:00,
2013-01-24 18:19:00,62.4,54.0,30.30,North,0,0.0,2.0,74,0.00,,,0.00,meteohub,2013-01-24 23:19:00,
2013-01-24 18:20:00,62.2,53.8,30.30,North,0,0.0,2.0,74,0.00,,,0.00,meteohub,2013-01-24 23:20:00,
2013-01-24 18:21:00,62.2,53.8,30.30,North,0,0.0,2.0,74,0.00,,,0.00,meteohub,2013-01-24 23:21:00,
2013-01-24 18:23:00,62.1,53.6,30.30,North,0,0.0,2.0,74,0.00,,,0.00,meteohub,2013-01-24 23:23:00,
2013-01-24 18:26:00,61.9,53.4,30.30,North,0,1.0,2.0,74,0.00,,,0.00,meteohub,2013-01-24 23:26:00,
2013-01-24 18:28:00,61.7,53.2,30.30,North,0,0.0,2.0,74,0.00,,,0.00,meteohub,2013-01-24 23:28:00,
2013-01-24 18:30:00,61.5,53.6,30.30,North,0,1.0,2.0,75,0.00,,,0.00,meteohub,2013-01-24 23:30:00,
2013-01-24 18:31:00,61.5,53.6,30.30,North,0,1.0,2.0,75,0.00,,,0.00,meteohub,2013-01-24 23:31:00,
2013-01-24 18:32:00,61.3,53.4,30.30,North,0,0.0,2.0,75,0.00,,,0.00,meteohub,2013-01-24 23:32:00,
2013-01-24 18:33:00,61.3,53.4,30.30,North,0,0.0,2.0,75,0.00,,,0.00,meteohub,2013-01-24 23:33:00,
2013-01-24 18:36:00,61.2,53.6,30.30,North,0,0.0,2.0,76,0.00,,,0.00,meteohub,2013-01-24 23:36:00,
2013-01-24 18:37:00,61.2,53.6,30.30,North,0,0.0,2.0,76,0.00,,,0.00,meteohub,2013-01-24 23:37:00,
2013-01-24 18:38:00,61.0,53.4,30.30,North,0,0.0,2.0,76,0.00,,,0.00,meteohub,2013-01-24 23:38:00,
2013-01-24 18:39:00,61.0,53.4,30.30,North,0,0.0,2.0,76,0.00,,,0.00,meteohub,2013-01-24 23:39:00,
2013-01-24 18:42:00,60.8,53.2,30.30,North,0,0.0,2.0,76,0.00,,,0.00,meteohub,2013-01-24 23:42:00,
2013-01-24 18:44:00,60.8,53.2,30.30,North,0,0.0,2.0,76,0.00,,,0.00,meteohub,2013-01-24 23:44:00,
2013-01-24 18:47:00,60.4,53.6,30.30,North,0,0.0,1.0,78,0.00,,,0.00,meteohub,2013-01-24 23:47:00,
2013-01-24 18:49:00,60.3,53.4,30.30,North,0,0.0,1.0,78,0.00,,,0.00,meteohub,2013-01-24 23:49:00,
2013-01-24 18:50:00,60.3,53.4,30.30,North,0,0.0,1.0,78,0.00,,,0.00,meteohub,2013-01-24 23:50:00,
2013-01-24 18:52:00,60.3,53.4,30.30,North,0,0.0,1.0,78,0.00,,,0.00,meteohub,2013-01-24 23:52:00,
2013-01-24 18:53:00,60.1,53.2,30.30,North,0,0.0,1.0,78,0.00,,,0.00,meteohub,2013-01-24 23:53:00,
2013-01-24 18:54:00,60.1,53.6,30.30,North,0,0.0,1.0,79,0.00,,,0.00,meteohub,2013-01-24 23:54:00,
2013-01-24 18:57:00,59.9,53.4,30.31,North,0,0.0,0.0,79,0.00,,,0.00,meteohub,2013-01-24 23:57:00,
2013-01-24 18:58:00,59.9,53.4,30.30,North,0,0.0,0.0,79,0.00,,,0.00,meteohub,2013-01-24 23:58:00,
2013-01-24 18:59:00,59.7,53.2,30.30,North,0,0.0,0.0,79,0.00,,,0.00,meteohub,2013-01-24 23:59:00,
2013-01-24 19:00:00,59.7,53.2,30.30,North,0,0.0,0.0,79,0.00,,,0.00,meteohub,2013-01-25 00:00:00,
2013-01-24 19:03:00,59.5,53.4,30.30,North,0,0.0,0.0,80,0.00,,,0.00,meteohub,2013-01-25 00:03:00,
2013-01-24 19:05:00,59.5,53.4,30.30,North,0,1.0,0.0,80,0.00,,,0.00,meteohub,2013-01-25 00:05:00,
2013-01-24 19:06:00,59.4,53.2,30.30,North,0,0.0,0.0,80,0.00,,,0.00,meteohub,2013-01-25 00:06:00,
2013-01-24 19:08:00,59.4,53.6,30.30,North,0,0.0,0.0,81,0.00,,,0.00,meteohub,2013-01-25 00:08:00,
2013-01-24 19:10:00,59.2,53.4,30.30,North,0,0.0,0.0,81,0.00,,,0.00,meteohub,2013-01-25 00:10:00,
2013-01-24 19:11:00,59.2,53.4,30.30,North,0,0.0,1.0,81,0.00,,,0.00,meteohub,2013-01-25 00:11:00,
2013-01-24 19:13:00,59.0,53.2,30.30,North,0,0.0,1.0,81,0.00,,,0.00,meteohub,2013-01-25 00:13:00,
2013-01-24 19:14:00,59.0,53.2,30.30,North,0,0.0,1.0,81,0.00,,,0.00,meteohub,2013-01-25 00:14:00,
2013-01-24 19:16:00,58.8,53.4,30.30,North,0,0.0,1.0,82,0.00,,,0.00,meteohub,2013-01-25 00:16:00,
2013-01-24 19:18:00,58.8,53.6,30.31,North,0,0.0,1.0,83,0.00,,,0.00,meteohub,2013-01-25 00:18:00,
2013-01-24 19:19:00,58.6,53.4,30.31,North,0,0.0,1.0,83,0.00,,,0.00,meteohub,2013-01-25 00:19:00,
2013-01-24 19:22:00,58.6,53.4,30.31,North,0,0.0,0.0,83,0.00,,,0.00,meteohub,2013-01-25 00:22:00,
2013-01-24 19:24:00,58.5,53.2,30.30,North,0,0.0,0.0,83,0.00,,,0.00,meteohub,2013-01-25 00:24:00,
2013-01-24 19:25:00,58.5,53.6,30.31,North,0,0.0,0.0,84,0.00,,,0.00,meteohub,2013-01-25 00:25:00,
2013-01-24 19:27:00,58.5,53.6,30.31,North,0,0.0,0.0,84,0.00,,,0.00,meteohub,2013-01-25 00:27:00,
2013-01-24 19:29:00,58.3,53.4,30.31,North,0,0.0,0.0,84,0.00,,,0.00,meteohub,2013-01-25 00:29:00,
2013-01-24 19:30:00,58.3,53.4,30.31,North,0,0.0,0.0,84,0.00,,,0.00,meteohub,2013-01-25 00:30:00,
2013-01-24 19:32:00,58.1,53.2,30.31,North,0,0.0,0.0,84,0.00,,,0.00,meteohub,2013-01-25 00:32:00,
2013-01-24 19:35:00,57.9,53.1,30.31,North,0,0.0,0.0,84,0.00,,,0.00,meteohub,2013-01-25 00:35:00,
2013-01-24 19:36:00,57.9,53.1,30.31,North,0,0.0,0.0,84,0.00,,,0.00,meteohub,2013-01-25 00:36:00,
2013-01-24 19:37:00,57.9,53.1,30.31,North,0,0.0,0.0,84,0.00,,,0.00,meteohub,2013-01-25 00:37:00,
2013-01-24 19:38:00,57.9,53.1,30.31,North,0,0.0,0.0,84,0.00,,,0.00,meteohub,2013-01-25 00:38:00,
2013-01-24 19:40:00,57.7,52.9,30.31,North,0,0.0,1.0,84,0.00,,,0.00,meteohub,2013-01-25 00:40:00,
2013-01-24 19:41:00,57.7,53.2,30.31,North,0,0.0,1.0,85,0.00,,,0.00,meteohub,2013-01-25 00:41:00,
2013-01-24 19:43:00,57.7,53.2,30.31,North,0,0.0,1.0,85,0.00,,,0.00,meteohub,2013-01-25 00:43:00,
2013-01-24 19:44:00,57.7,53.2,30.31,North,0,0.0,1.0,85,0.00,,,0.00,meteohub,2013-01-25 00:44:00,
2013-01-24 19:48:00,57.6,53.1,30.31,North,0,0.0,1.0,85,0.00,,,0.00,meteohub,2013-01-25 00:48:00,
2013-01-24 19:49:00,57.6,53.1,30.31,North,0,0.0,1.0,85,0.00,,,0.00,meteohub,2013-01-25 00:49:00,
2013-01-24 19:52:00,57.4,52.9,30.31,North,0,0.0,1.0,85,0.00,,,0.00,meteohub,2013-01-25 00:52:00,
2013-01-24 19:54:00,57.4,53.2,30.31,North,0,0.0,1.0,86,0.00,,,0.00,meteohub,2013-01-25 00:54:00,
2013-01-24 19:57:00,57.2,53.1,30.31,North,0,0.0,0.0,86,0.00,,,0.00,meteohub,2013-01-25 00:57:00,
2013-01-24 19:59:00,57.2,53.1,30.30,North,0,0.0,0.0,86,0.00,,,0.00,meteohub,2013-01-25 00:59:00,
2013-01-24 20:01:00,57.0,53.2,30.31,North,0,0.0,0.0,87,0.00,,,0.00,meteohub,2013-01-25 01:01:00,
2013-01-24 20:02:00,57.0,53.2,30.31,North,0,0.0,0.0,87,0.00,,,0.00,meteohub,2013-01-25 01:02:00,
2013-01-24 20:05:00,57.0,53.2,30.31,North,0,0.0,0.0,87,0.00,,,0.00,meteohub,2013-01-25 01:05:00,
2013-01-24 20:06:00,57.0,53.2,30.31,North,0,0.0,0.0,87,0.00,,,0.00,meteohub,2013-01-25 01:06:00,
2013-01-24 20:07:00,56.8,53.1,30.31,North,0,0.0,0.0,87,0.00,,,0.00,meteohub,2013-01-25 01:07:00,
2013-01-24 20:08:00,56.8,53.1,30.31,North,0,0.0,0.0,87,0.00,,,0.00,meteohub,2013-01-25 01:08:00,
2013-01-24 20:10:00,56.8,53.1,30.31,North,0,0.0,0.0,87,0.00,,,0.00,meteohub,2013-01-25 01:10:00,
2013-01-24 20:12:00,56.8,53.1,30.31,North,0,0.0,0.0,87,0.00,,,0.00,meteohub,2013-01-25 01:12:00,
2013-01-24 20:13:00,56.7,53.1,30.31,North,0,0.0,0.0,88,0.00,,,0.00,meteohub,2013-01-25 01:13:00,
2013-01-24 20:15:00,56.7,53.1,30.31,North,0,0.0,0.0,88,0.00,,,0.00,meteohub,2013-01-25 01:15:00,
2013-01-24 20:17:00,56.7,53.1,30.32,North,0,0.0,0.0,88,0.00,,,0.00,meteohub,2013-01-25 01:17:00,
2013-01-24 20:18:00,56.5,52.9,30.31,North,0,0.0,0.0,88,0.00,,,0.00,meteohub,2013-01-25 01:18:00,
2013-01-24 20:20:00,56.5,52.9,30.31,North,0,0.0,0.0,88,0.00,,,0.00,meteohub,2013-01-25 01:20:00,
2013-01-24 20:21:00,56.5,52.9,30.31,North,0,0.0,0.0,88,0.00,,,0.00,meteohub,2013-01-25 01:21:00,
2013-01-24 20:24:00,56.3,52.9,30.31,North,0,0.0,0.0,88,0.00,,,0.00,meteohub,2013-01-25 01:24:00,
2013-01-24 20:25:00,56.3,52.9,30.31,North,0,0.0,0.0,88,0.00,,,0.00,meteohub,2013-01-25 01:25:00,
2013-01-24 20:27:00,56.3,52.9,30.32,North,0,0.0,0.0,88,0.00,,,0.00,meteohub,2013-01-25 01:27:00,
2013-01-24 20:28:00,56.1,52.7,30.31,North,0,0.0,0.0,88,0.00,,,0.00,meteohub,2013-01-25 01:28:00,
2013-01-24 20:29:00,56.1,52.7,30.31,North,0,0.0,0.0,88,0.00,,,0.00,meteohub,2013-01-25 01:29:00,
2013-01-24 20:30:00,56.1,52.7,30.31,North,0,0.0,0.0,88,0.00,,,0.00,meteohub,2013-01-25 01:30:00,
2013-01-24 20:32:00,56.1,52.7,30.32,North,0,0.0,0.0,88,0.00,,,0.00,meteohub,2013-01-25 01:32:00,
2013-01-24 20:35:00,55.9,52.7,30.32,North,0,0.0,0.0,89,0.00,,,0.00,meteohub,2013-01-25 01:35:00,
2013-01-24 20:36:00,55.9,52.7,30.31,North,0,0.0,0.0,89,0.00,,,0.00,meteohub,2013-01-25 01:36:00,
2013-01-24 20:37:00,55.9,52.7,30.32,North,0,0.0,0.0,89,0.00,,,0.00,meteohub,2013-01-25 01:37:00,
2013-01-24 20:40:00,55.9,52.7,30.32,North,0,0.0,0.0,89,0.00,,,0.00,meteohub,2013-01-25 01:40:00,
2013-01-24 20:41:00,55.9,52.7,30.31,North,0,0.0,0.0,89,0.00,,,0.00,meteohub,2013-01-25 01:41:00,
2013-01-24 20:42:00,55.9,52.7,30.32,North,0,0.0,0.0,89,0.00,,,0.00,meteohub,2013-01-25 01:42:00,
2013-01-24 20:45:00,55.8,52.5,30.32,North,0,0.0,0.0,89,0.00,,,0.00,meteohub,2013-01-25 01:45:00,
2013-01-24 20:47:00,55.8,52.5,30.31,North,0,0.0,0.0,89,0.00,,,0.00,meteohub,2013-01-25 01:47:00,
2013-01-24 20:48:00,55.8,52.5,30.32,North,0,0.0,0.0,89,0.00,,,0.00,meteohub,2013-01-25 01:48:00,
2013-01-24 20:50:00,55.8,52.5,30.31,North,0,0.0,0.0,89,0.00,,,0.00,meteohub,2013-01-25 01:50:00,
2013-01-24 20:52:00,55.6,52.7,30.31,North,0,0.0,0.0,90,0.00,,,0.00,meteohub,2013-01-25 01:52:00,
2013-01-24 20:54:00,55.6,52.7,30.31,North,0,0.0,0.0,90,0.00,,,0.00,meteohub,2013-01-25 01:54:00,
2013-01-24 20:57:00,55.4,52.5,30.31,North,0,0.0,0.0,90,0.00,,,0.00,meteohub,2013-01-25 01:57:00,
2013-01-24 20:58:00,55.4,52.5,30.31,North,0,0.0,0.0,90,0.00,,,0.00,meteohub,2013-01-25 01:58:00,
2013-01-24 20:59:00,55.4,52.5,30.31,North,0,0.0,0.0,90,0.00,,,0.00,meteohub,2013-01-25 01:59:00,
2013-01-24 21:02:00,55.4,52.5,30.31,North,0,0.0,0.0,90,0.00,,,0.00,meteohub,2013-01-25 02:02:00,
2013-01-24 21:03:00,55.4,52.5,30.31,North,0,0.0,0.0,90,0.00,,,0.00,meteohub,2013-01-25 02:03:00,
2013-01-24 21:04:00,55.2,52.7,30.31,North,0,0.0,0.0,91,0.00,,,0.00,meteohub,2013-01-25 02:04:00,
2013-01-24 21:06:00,55.2,52.7,30.31,North,0,0.0,0.0,91,0.00,,,0.00,meteohub,2013-01-25 02:06:00,
2013-01-24 21:08:00,55.2,52.7,30.31,North,0,0.0,0.0,91,0.00,,,0.00,meteohub,2013-01-25 02:08:00,
2013-01-24 21:10:00,55.2,52.7,30.31,North,0,0.0,0.0,91,0.00,,,0.00,meteohub,2013-01-25 02:10:00,
2013-01-24 21:11:00,55.2,52.7,30.31,North,0,0.0,0.0,91,0.00,,,0.00,meteohub,2013-01-25 02:11:00,
2013-01-24 21:15:00,55.2,52.7,30.31,North,0,0.0,0.0,91,0.00,,,0.00,meteohub,2013-01-25 02:15:00,
2013-01-24 21:16:00,55.2,52.7,30.31,North,0,0.0,0.0,91,0.00,,,0.00,meteohub,2013-01-25 02:16:00,
2013-01-24 21:17:00,55.2,52.7,30.31,North,0,0.0,0.0,91,0.00,,,0.00,meteohub,2013-01-25 02:17:00,
2013-01-24 21:19:00,55.2,52.7,30.31,North,0,0.0,0.0,91,0.00,,,0.00,meteohub,2013-01-25 02:19:00,
2013-01-24 21:20:00,55.2,52.7,30.31,North,0,0.0,0.0,91,0.00,,,0.00,meteohub,2013-01-25 02:20:00,
2013-01-24 21:22:00,55.2,52.7,30.32,North,0,0.0,0.0,91,0.00,,,0.00,meteohub,2013-01-25 02:22:00,
2013-01-24 21:23:00,55.2,52.9,30.31,North,0,0.0,0.0,92,0.00,,,0.00,meteohub,2013-01-25 02:23:00,
2013-01-24 21:25:00,55.0,52.7,30.32,North,0,0.0,0.0,92,0.00,,,0.00,meteohub,2013-01-25 02:25:00,
2013-01-24 21:27:00,55.0,52.7,30.31,North,0,0.0,0.0,92,0.00,,,0.00,meteohub,2013-01-25 02:27:00,
2013-01-24 21:28:00,55.0,52.7,30.31,North,0,0.0,0.0,92,0.00,,,0.00,meteohub,2013-01-25 02:28:00,
2013-01-24 21:29:00,55.0,52.7,30.31,North,0,0.0,0.0,92,0.00,,,0.00,meteohub,2013-01-25 02:29:00,
2013-01-24 21:34:00,55.0,52.7,30.31,North,0,0.0,0.0,92,0.00,,,0.00,meteohub,2013-01-25 02:34:00,
2013-01-24 21:35:00,55.0,52.7,30.31,North,0,0.0,0.0,92,0.00,,,0.00,meteohub,2013-01-25 02:35:00,
2013-01-24 21:36:00,54.9,52.5,30.31,North,0,0.0,0.0,92,0.00,,,0.00,meteohub,2013-01-25 02:36:00,
2013-01-24 21:39:00,54.9,52.5,30.31,North,0,0.0,0.0,92,0.00,,,0.00,meteohub,2013-01-25 02:39:00,
2013-01-24 21:40:00,54.9,52.5,30.31,North,0,0.0,0.0,92,0.00,,,0.00,meteohub,2013-01-25 02:40:00,
2013-01-24 21:41:00,54.9,52.5,30.32,North,0,0.0,0.0,92,0.00,,,0.00,meteohub,2013-01-25 02:41:00,
2013-01-24 21:43:00,54.9,52.5,30.31,North,0,0.0,0.0,92,0.00,,,0.00,meteohub,2013-01-25 02:43:00,
2013-01-24 21:44:00,54.9,52.5,30.31,North,0,0.0,0.0,92,0.00,,,0.00,meteohub,2013-01-25 02:44:00,
2013-01-24 21:45:00,54.9,52.5,30.31,North,0,0.0,0.0,92,0.00,,,0.00,meteohub,2013-01-25 02:45:00,
2013-01-24 21:48:00,54.9,52.5,30.31,North,0,0.0,0.0,92,0.00,,,0.00,meteohub,2013-01-25 02:48:00,
2013-01-24 21:49:00,54.9,52.5,30.32,North,0,0.0,0.0,92,0.00,,,0.00,meteohub,2013-01-25 02:49:00,
2013-01-24 21:50:00,54.7,52.7,30.32,North,0,0.0,0.0,93,0.00,,,0.00,meteohub,2013-01-25 02:50:00,
2013-01-24 21:51:00,54.7,52.7,30.31,North,0,0.0,0.0,93,0.00,,,0.00,meteohub,2013-01-25 02:51:00,
2013-01-24 21:53:00,54.7,52.7,30.31,North,0,0.0,0.0,93,0.00,,,0.00,meteohub,2013-01-25 02:53:00,
2013-01-24 21:56:00,54.7,52.7,30.32,North,0,0.0,0.0,93,0.00,,,0.00,meteohub,2013-01-25 02:56:00,
2013-01-24 21:57:00,54.7,52.7,30.31,North,0,0.0,0.0,93,0.00,,,0.00,meteohub,2013-01-25 02:57:00,
2013-01-24 21:59:00,54.5,52.5,30.32,North,0,0.0,0.0,93,0.00,,,0.00,meteohub,2013-01-25 02:59:00,
2013-01-24 22:00:00,54.5,52.5,30.32,North,0,0.0,0.0,93,0.00,,,0.00,meteohub,2013-01-25 03:00:00,
2013-01-24 22:03:00,54.5,52.5,30.32,North,0,0.0,0.0,93,0.00,,,0.00,meteohub,2013-01-25 03:03:00,
2013-01-24 22:04:00,54.5,52.5,30.32,North,0,0.0,0.0,93,0.00,,,0.00,meteohub,2013-01-25 03:04:00,
2013-01-24 22:08:00,54.3,52.3,30.32,North,0,0.0,0.0,93,0.00,,,0.00,meteohub,2013-01-25 03:08:00,
2013-01-24 22:09:00,54.3,52.3,30.32,North,0,0.0,0.0,93,0.00,,,0.00,meteohub,2013-01-25 03:09:00,
2013-01-24 22:10:00,54.3,52.3,30.32,North,0,0.0,0.0,93,0.00,,,0.00,meteohub,2013-01-25 03:10:00,
2013-01-24 22:12:00,54.3,52.3,30.32,North,0,0.0,0.0,93,0.00,,,0.00,meteohub,2013-01-25 03:12:00,
2013-01-24 22:15:00,54.1,52.2,30.32,North,0,0.0,0.0,93,0.00,,,0.00,meteohub,2013-01-25 03:15:00,
2013-01-24 22:16:00,54.1,52.2,30.32,North,0,0.0,0.0,93,0.00,,,0.00,meteohub,2013-01-25 03:16:00,
2013-01-24 22:17:00,54.1,52.2,30.32,North,0,0.0,0.0,93,0.00,,,0.00,meteohub,2013-01-25 03:17:00,
2013-01-24 22:20:00,54.1,52.2,30.32,North,0,0.0,0.0,93,0.00,,,0.00,meteohub,2013-01-25 03:20:00,
2013-01-24 22:21:00,54.1,52.2,30.32,North,0,0.0,0.0,93,0.00,,,0.00,meteohub,2013-01-25 03:21:00,
2013-01-24 22:22:00,54.1,52.2,30.32,North,0,0.0,0.0,93,0.00,,,0.00,meteohub,2013-01-25 03:22:00,
2013-01-24 22:28:00,54.0,52.0,30.32,North,0,0.0,0.0,93,0.00,,,0.00,meteohub,2013-01-25 03:28:00,
2013-01-24 22:29:00,53.8,51.8,30.32,North,0,0.0,0.0,93,0.00,,,0.00,meteohub,2013-01-25 03:29:00,
2013-01-24 22:30:00,53.8,51.8,30.32,North,0,0.0,0.0,93,0.00,,,0.00,meteohub,2013-01-25 03:30:00,
2013-01-24 22:32:00,53.8,51.8,30.32,North,0,0.0,0.0,93,0.00,,,0.00,meteohub,2013-01-25 03:32:00,
2013-01-24 22:33:00,53.8,51.8,30.32,North,0,0.0,0.0,93,0.00,,,0.00,meteohub,2013-01-25 03:33:00,
2013-01-24 22:35:00,53.6,51.6,30.32,North,0,0.0,0.0,93,0.00,,,0.00,meteohub,2013-01-25 03:35:00,
2013-01-24 22:37:00,53.6,51.6,30.32,North,0,0.0,0.0,93,0.00,,,0.00,meteohub,2013-01-25 03:37:00,
2013-01-24 22:38:00,53.6,51.6,30.32,North,0,0.0,0.0,93,0.00,,,0.00,meteohub,2013-01-25 03:38:00,
2013-01-24 22:39:00,53.6,51.6,30.32,North,0,0.0,0.0,93,0.00,,,0.00,meteohub,2013-01-25 03:39:00,
2013-01-24 22:42:00,53.8,52.2,30.32,North,0,0.0,0.0,94,0.00,,,0.00,meteohub,2013-01-25 03:42:00,
2013-01-24 22:43:00,53.8,52.2,30.31,North,0,0.0,0.0,94,0.00,,,0.00,meteohub,2013-01-25 03:43:00,
2013-01-24 22:45:00,53.8,52.2,30.32,North,0,0.0,0.0,94,0.00,,,0.00,meteohub,2013-01-25 03:45:00,
2013-01-24 22:48:00,53.8,52.2,30.32,North,0,0.0,0.0,94,0.00,,,0.00,meteohub,2013-01-25 03:48:00,
2013-01-24 22:50:00,53.8,52.2,30.32,North,0,0.0,0.0,94,0.00,,,0.00,meteohub,2013-01-25 03:50:00,
2013-01-24 22:52:00,53.8,52.2,30.32,North,0,0.0,0.0,94,0.00,,,0.00,meteohub,2013-01-25 03:52:00,
2013-01-24 22:55:00,53.6,52.0,30.32,North,0,0.0,0.0,94,0.00,,,0.00,meteohub,2013-01-25 03:55:00,
2013-01-24 22:56:00,53.6,52.0,30.32,North,0,0.0,0.0,94,0.00,,,0.00,meteohub,2013-01-25 03:56:00,
2013-01-24 22:57:00,53.6,52.0,30.32,North,0,0.0,0.0,94,0.00,,,0.00,meteohub,2013-01-25 03:57:00,
2013-01-24 23:01:00,53.6,52.0,30.32,North,0,0.0,0.0,94,0.00,,,0.00,meteohub,2013-01-25 04:01:00,
2013-01-24 23:02:00,53.6,52.0,30.32,North,0,0.0,0.0,94,0.00,,,0.00,meteohub,2013-01-25 04:02:00,
2013-01-24 23:03:00,53.6,52.0,30.32,North,0,0.0,0.0,94,0.00,,,0.00,meteohub,2013-01-25 04:03:00,
2013-01-24 23:07:00,53.4,52.0,30.32,North,0,0.0,0.0,95,0.00,,,0.00,meteohub,2013-01-25 04:07:00,
2013-01-24 23:08:00,53.4,52.0,30.32,North,0,0.0,0.0,95,0.00,,,0.00,meteohub,2013-01-25 04:08:00,
2013-01-24 23:09:00,53.4,52.0,30.32,North,0,0.0,0.0,95,0.00,,,0.00,meteohub,2013-01-25 04:09:00,
2013-01-24 23:14:00,53.2,51.8,30.32,North,0,0.0,0.0,95,0.00,,,0.00,meteohub,2013-01-25 04:14:00,
2013-01-24 23:15:00,53.2,51.8,30.32,North,0,0.0,0.0,95,0.00,,,0.00,meteohub,2013-01-25 04:15:00,
2013-01-24 23:17:00,53.2,51.8,30.32,North,0,0.0,0.0,95,0.00,,,0.00,meteohub,2013-01-25 04:17:00,
2013-01-24 23:19:00,53.2,51.8,30.32,North,0,0.0,0.0,95,0.00,,,0.00,meteohub,2013-01-25 04:19:00,
2013-01-24 23:20:00,53.2,51.8,30.32,North,0,0.0,0.0,95,0.00,,,0.00,meteohub,2013-01-25 04:20:00,
2013-01-24 23:21:00,53.1,51.6,30.32,North,0,0.0,0.0,95,0.00,,,0.00,meteohub,2013-01-25 04:21:00,
2013-01-24 23:22:00,53.1,51.6,30.32,North,0,0.0,0.0,95,0.00,,,0.00,meteohub,2013-01-25 04:22:00,
2013-01-24 23:25:00,53.1,51.6,30.32,North,0,0.0,0.0,95,0.00,,,0.00,meteohub,2013-01-25 04:25:00,
2013-01-24 23:26:00,53.1,51.6,30.32,North,0,0.0,0.0,95,0.00,,,0.00,meteohub,2013-01-25 04:26:00,
2013-01-24 23:28:00,53.1,51.6,30.32,North,0,0.0,0.0,95,0.00,,,0.00,meteohub,2013-01-25 04:28:00,
2013-01-24 23:29:00,53.1,51.6,30.32,North,0,0.0,0.0,95,0.00,,,0.00,meteohub,2013-01-25 04:29:00,
2013-01-24 23:30:00,53.1,51.6,30.32,North,0,0.0,0.0,95,0.00,,,0.00,meteohub,2013-01-25 04:30:00,
2013-01-24 23:34:00,52.9,51.4,30.32,North,0,0.0,0.0,95,0.00,,,0.00,meteohub,2013-01-25 04:34:00,
2013-01-24 23:35:00,52.9,51.4,30.32,North,0,0.0,0.0,95,0.00,,,0.00,meteohub,2013-01-25 04:35:00,
2013-01-24 23:37:00,52.9,51.4,30.32,North,0,0.0,0.0,95,0.00,,,0.00,meteohub,2013-01-25 04:37:00,
2013-01-24 23:40:00,52.7,51.3,30.32,North,0,0.0,0.0,95,0.00,,,0.00,meteohub,2013-01-25 04:40:00,
2013-01-24 23:41:00,52.7,51.3,30.32,North,0,0.0,0.0,95,0.00,,,0.00,meteohub,2013-01-25 04:41:00,
2013-01-24 23:42:00,52.7,51.3,30.32,North,0,0.0,0.0,95,0.00,,,0.00,meteohub,2013-01-25 04:42:00,
2013-01-24 23:45:00,52.7,51.3,30.32,North,0,0.0,0.0,95,0.00,,,0.00,meteohub,2013-01-25 04:45:00,
2013-01-24 23:46:00,52.7,51.3,30.32,North,0,0.0,0.0,95,0.00,,,0.00,meteohub,2013-01-25 04:46:00,
2013-01-24 23:47:00,52.7,51.3,30.32,North,0,0.0,0.0,95,0.00,,,0.00,meteohub,2013-01-25 04:47:00,
2013-01-24 23:48:00,52.7,51.3,30.32,North,0,0.0,0.0,95,0.00,,,0.00,meteohub,2013-01-25 04:48:00,
2013-01-24 23:50:00,52.7,51.3,30.32,North,0,0.0,0.0,95,0.00,,,0.00,meteohub,2013-01-25 04:50:00,
2013-01-24 23:53:00,52.5,51.1,30.32,North,0,0.0,0.0,95,0.00,,,0.00,meteohub,2013-01-25 04:53:00,
2013-01-24 23:54:00,52.5,51.1,30.32,North,0,0.0,0.0,95,0.00,,,0.00,meteohub,2013-01-25 04:54:00,
2013-01-24 23:57:00,52.5,51.1,30.32,North,0,0.0,0.0,95,0.00,,,0.00,meteohub,2013-01-25 04:57:00,
2013-01-24 23:59:00,52.5,51.1,30.32,North,0,0.0,0.0,95,0.00,,,0.00,meteohub,2013-01-25 04:59:00,